Time,TemperatureF,DewpointF,PressureIn,WindDirection,WindDirectionDegrees,WindSpeedMPH,WindSpeedGustMPH,Humidity,HourlyPrecipIn,Conditions,Clouds,dailyrainin,SoftwareType,DateUTC
2013-09-28 00:00:00,50.7,50.4,30.27,NNE,14,0.0,0.0,99,0.00,CLR,OVC,0.00,WeatherDisplay:10.37,2013-09-28 04:00:00,
2013-09-28 00:01:00,50.7,50.4,30.28,NNE,14,0.0,0.0,99,0.00,CLR,OVC,0.00,WeatherDisplay:10.37,2013-09-28 04:01:00,
2013-09-28 00:06:00,50.5,50.2,30.27,NNE,14,1.4,2.3,99,0.00,CLR,OVC,0.00,WeatherDisplay:10.37,2013-09-28 04:06:00,
2013-09-28 00:11:00,50.3,50.0,30.27,NNE,14,1.1,2.3,99,0.00,CLR,OVC,0.00,WeatherDisplay:10.37,2013-09-28 04:11:00,
2013-09-28 00:12:00,50.2,49.9,30.27,NNE,14,1.0,2.3,99,0.00,CLR,OVC,0.00,WeatherDisplay:10.37,2013-09-28 04:12:00,
2013-09-28 00:16:00,49.9,49.6,30.27,NNE,14,1.2,2.3,99,0.00,CLR,OVC,0.00,WeatherDisplay:10.37,2013-09-28 04:16:00,
2013-09-28 00:17:00,49.8,49.5,30.27,NNE,14,1.5,2.3,99,0.00,CLR,OVC,0.00,WeatherDisplay:10.37,2013-09-28 04:17:00,
2013-09-28 00:18:00,49.9,49.6,30.28,NNE,14,1.2,2.3,99,0.00,CLR,OVC,0.00,WeatherDisplay:10.37,2013-09-28 04:18:00,
2013-09-28 00:21:00,49.7,49.4,30.28,NNE,14,1.4,2.3,99,0.00,CLR,OVC,0.00,WeatherDisplay:10.37,2013-09-28 04:21:00,
2013-09-28 00:22:00,49.6,49.3,30.27,NNE,14,1.4,2.3,99,0.00,CLR,OVC,0.00,WeatherDisplay:10.37,2013-09-28 04:22:00,
2013-09-28 00:23:00,49.5,49.2,30.27,NNE,14,1.2,2.3,99,0.00,CLR,OVC,0.00,WeatherDisplay:10.37,2013-09-28 04:23:00,
2013-09-28 00:26:00,49.4,49.1,30.27,NNE,14,0.0,1.2,99,0.00,CLR,OVC,0.00,WeatherDisplay:10.37,2013-09-28 04:26:00,
2013-09-28 00:27:00,49.4,49.1,30.27,NNE,14,0.0,0.0,99,0.00,CLR,OVC,0.00,WeatherDisplay:10.37,2013-09-28 04:27:00,
2013-09-28 00:28:00,49.3,49.0,30.27,NNE,14,0.0,0.0,99,0.00,CLR,OVC,0.00,WeatherDisplay:10.37,2013-09-28 04:28:00,
2013-09-28 00:31:00,49.3,49.0,30.27,NNE,14,0.0,0.0,99,0.00,CLR,OVC,0.00,WeatherDisplay:10.37,2013-09-28 04:31:00,
2013-09-28 00:32:00,49.3,49.0,30.27,NNE,14,0.0,0.0,99,0.00,CLR,OVC,0.00,WeatherDisplay:10.37,2013-09-28 04:32:00,
2013-09-28 00:33:00,49.2,48.9,30.27,NNE,14,0.8,1.0,99,0.00,CLR,OVC,0.00,WeatherDisplay:10.37,2013-09-28 04:33:00,
2013-09-28 00:36:00,49.1,48.8,30.27,NNE,14,0.3,1.2,99,0.00,CLR,OVC,0.00,WeatherDisplay:10.37,2013-09-28 04:36:00,
2013-09-28 00:37:00,49.1,48.8,30.28,NNE,14,0.0,1.2,99,0.00,CLR,OVC,0.00,WeatherDisplay:10.37,2013-09-28 04:37:00,
2013-09-28 00:38:00,49.1,48.8,30.28,NNE,14,0.0,0.0,99,0.00,CLR,OVC,0.00,WeatherDisplay:10.37,2013-09-28 04:38:00,
2013-09-28 00:39:00,49.0,48.7,30.28,NNE,14,0.0,0.0,99,0.00,CLR,OVC,0.00,WeatherDisplay:10.37,2013-09-28 04:39:00,
2013-09-28 00:41:00,48.9,48.6,30.28,NNE,14,0.0,0.0,99,0.00,CLR,OVC,0.00,WeatherDisplay:10.37,2013-09-28 04:41:00,
2013-09-28 00:43:00,48.8,48.5,30.28,NNE,14,0.0,0.0,99,0.00,CLR,OVC,0.00,WeatherDisplay:10.37,2013-09-28 04:43:00,
2013-09-28 00:45:00,48.7,48.4,30.28,NNE,14,0.0,0.0,99,0.00,CLR,OVC,0.00,WeatherDisplay:10.37,2013-09-28 04:45:00,
2013-09-28 00:46:00,48.6,48.6,30.28,NNE,14,0.0,0.0,100,0.00,CLR,OVC,0.00,WeatherDisplay:10.37,2013-09-28 04:46:00,
2013-09-28 00:48:00,48.6,48.3,30.28,NNE,14,0.0,0.0,99,0.00,CLR,OVC,0.00,WeatherDisplay:10.37,2013-09-28 04:48:00,
2013-09-28 00:49:00,48.5,48.2,30.28,NNE,14,0.0,0.0,99,0.00,CLR,OVC,0.00,WeatherDisplay:10.37,2013-09-28 04:49:00,
2013-09-28 00:50:00,48.5,48.2,30.28,NNE,14,0.0,0.0,99,0.00,CLR,OVC,0.00,WeatherDisplay:10.37,2013-09-28 04:50:00,
2013-09-28 00:52:00,48.5,48.2,30.28,NNE,14,0.0,0.0,99,0.00,CLR,OVC,0.00,WeatherDisplay:10.37,2013-09-28 04:52:00,
2013-09-28 00:53:00,48.4,48.1,30.28,NNE,14,0.0,0.0,99,0.00,CLR,OVC,0.00,WeatherDisplay:10.37,2013-09-28 04:53:00,
2013-09-28 00:54:00,48.4,48.1,30.28,NNE,14,0.0,0.0,99,0.00,CLR,OVC,0.00,WeatherDisplay:10.37,2013-09-28 04:54:00,
2013-09-28 00:55:00,48.4,48.1,30.28,NNE,14,0.0,0.0,99,0.00,CLR,OVC,0.00,WeatherDisplay:10.37,2013-09-28 04:55:00,
2013-09-28 00:57:00,48.4,48.1,30.28,NNE,14,0.0,0.0,99,0.00,CLR,OVC,0.00,WeatherDisplay:10.37,2013-09-28 04:57:00,
2013-09-28 00:58:00,48.4,48.1,30.28,NNE,14,0.0,0.0,99,0.00,CLR,OVC,0.00,WeatherDisplay:10.37,2013-09-28 04:58:00,
2013-09-28 00:59:00,48.3,48.0,30.28,NNE,14,0.0,0.0,99,0.00,CLR,OVC,0.00,WeatherDisplay:10.37,2013-09-28 04:59:00,
2013-09-28 01:00:00,48.3,48.0,30.28,NNE,14,0.0,0.0,99,0.00,CLR,OVC,0.00,WeatherDisplay:10.37,2013-09-28 05:00:00,
2013-09-28 01:02:00,48.4,48.1,30.28,NNE,14,0.0,0.0,99,0.00,CLR,OVC,0.00,WeatherDisplay:10.37,2013-09-28 05:02:00,
2013-09-28 01:03:00,48.4,48.1,30.28,NNE,14,0.0,0.0,99,0.00,CLR,OVC,0.00,WeatherDisplay:10.37,2013-09-28 05:03:00,
2013-09-28 01:04:00,48.4,48.1,30.28,NNE,14,0.0,0.0,99,0.00,CLR,OVC,0.00,WeatherDisplay:10.37,2013-09-28 05:04:00,
2013-09-28 01:05:00,48.4,48.4,30.28,NNE,14,0.0,0.0,100,0.00,CLR,OVC,0.00,WeatherDisplay:10.37,2013-09-28 05:05:00,
2013-09-28 01:06:00,48.4,48.1,30.28,NNE,14,0.0,0.0,99,0.00,CLR,OVC,0.00,WeatherDisplay:10.37,2013-09-28 05:06:00,
2013-09-28 01:07:00,48.4,48.1,30.28,NNE,14,0.0,0.0,99,0.00,CLR,OVC,0.00,WeatherDisplay:10.37,2013-09-28 05:07:00,
2013-09-28 01:08:00,48.3,48.0,30.28,NNE,14,0.0,0.0,99,0.00,CLR,OVC,0.00,WeatherDisplay:10.37,2013-09-28 05:08:00,
2013-09-28 01:09:00,48.3,48.0,30.28,NNE,14,0.0,0.0,99,0.00,CLR,OVC,0.00,WeatherDisplay:10.37,2013-09-28 05:09:00,
2013-09-28 01:10:00,48.3,48.0,30.28,NNE,14,0.0,0.0,99,0.00,CLR,OVC,0.00,WeatherDisplay:10.37,2013-09-28 05:10:00,
2013-09-28 01:11:00,48.3,48.0,30.28,NNE,14,0.0,0.0,99,0.00,CLR,OVC,0.00,WeatherDisplay:10.37,2013-09-28 05:11:00,
2013-09-28 01:12:00,48.2,47.9,30.28,NNE,14,0.0,0.0,99,0.00,CLR,OVC,0.00,WeatherDisplay:10.37,2013-09-28 05:12:00,
2013-09-28 01:13:00,48.2,47.9,30.28,NNE,14,0.0,0.0,99,0.00,CLR,OVC,0.00,WeatherDisplay:10.37,2013-09-28 05:13:00,
2013-09-28 01:14:00,48.2,47.9,30.28,NNE,14,0.0,0.0,99,0.00,CLR,OVC,0.00,WeatherDisplay:10.37,2013-09-28 05:14:00,
2013-09-28 01:16:00,48.1,47.8,30.28,NNE,14,0.0,0.0,99,0.00,CLR,OVC,0.00,WeatherDisplay:10.37,2013-09-28 05:16:00,
2013-09-28 01:17:00,48.0,47.7,30.28,NNE,14,0.0,0.0,99,0.00,CLR,OVC,0.00,WeatherDisplay:10.37,2013-09-28 05:17:00,
2013-09-28 01:19:00,48.0,47.7,30.28,NNE,14,0.0,0.0,99,0.00,CLR,OVC,0.00,WeatherDisplay:10.37,2013-09-28 05:19:00,
2013-09-28 01:21:00,47.9,47.6,30.28,NNE,14,0.0,0.0,99,0.00,CLR,OVC,0.00,WeatherDisplay:10.37,2013-09-28 05:21:00,
2013-09-28 01:22:00,47.9,47.6,30.28,NNE,14,0.0,0.0,99,0.00,CLR,OVC,0.00,WeatherDisplay:10.37,2013-09-28 05:22:00,
2013-09-28 01:24:00,48.0,47.7,30.28,NNE,14,0.0,0.0,99,0.00,CLR,OVC,0.00,WeatherDisplay:10.37,2013-09-28 05:24:00,
2013-09-28 01:25:00,48.0,47.7,30.28,NNE,14,0.0,0.0,99,0.00,CLR,OVC,0.00,WeatherDisplay:10.37,2013-09-28 05:25:00,
2013-09-28 01:26:00,48.1,47.8,30.29,NNE,14,0.0,0.0,99,0.00,CLR,OVC,0.00,WeatherDisplay:10.37,2013-09-28 05:26:00,
2013-09-28 01:27:00,48.1,47.8,30.28,NNE,14,0.0,0.0,99,0.00,CLR,OVC,0.00,WeatherDisplay:10.37,2013-09-28 05:27:00,
2013-09-28 01:29:00,48.1,47.8,30.29,NNE,14,0.0,0.0,99,0.00,CLR,OVC,0.00,WeatherDisplay:10.37,2013-09-28 05:29:00,
2013-09-28 01:30:00,48.2,47.9,30.28,NNE,14,0.0,0.0,99,0.00,CLR,OVC,0.00,WeatherDisplay:10.37,2013-09-28 05:30:00,
2013-09-28 01:31:00,48.2,47.9,30.29,NNE,14,0.0,0.0,99,0.00,CLR,OVC,0.00,WeatherDisplay:10.37,2013-09-28 05:31:00,
2013-09-28 01:33:00,48.2,48.2,30.29,NNE,14,0.0,0.0,100,0.00,CLR,OVC,0.00,WeatherDisplay:10.37,2013-09-28 05:33:00,
2013-09-28 01:34:00,48.3,48.0,30.29,NNE,14,0.0,0.0,99,0.00,CLR,OVC,0.00,WeatherDisplay:10.37,2013-09-28 05:34:00,
2013-09-28 01:36:00,48.3,48.3,30.29,NNE,14,0.0,0.0,100,0.00,CLR,OVC,0.00,WeatherDisplay:10.37,2013-09-28 05:36:00,
2013-09-28 01:38:00,48.4,48.1,30.29,NNE,14,0.0,0.0,99,0.00,CLR,OVC,0.00,WeatherDisplay:10.37,2013-09-28 05:38:00,
2013-09-28 01:40:00,48.3,48.0,30.29,NNE,14,0.0,0.0,99,0.00,CLR,OVC,0.00,WeatherDisplay:10.37,2013-09-28 05:40:00,
2013-09-28 01:41:00,48.4,48.4,30.29,NNE,14,0.0,0.0,100,0.00,CLR,OVC,0.00,WeatherDisplay:10.37,2013-09-28 05:41:00,
2013-09-28 01:42:00,48.4,48.4,30.29,NNE,14,0.0,0.0,100,0.00,CLR,OVC,0.00,WeatherDisplay:10.37,2013-09-28 05:42:00,
2013-09-28 01:43:00,48.3,48.3,30.29,NNE,14,0.0,0.0,100,0.00,CLR,OVC,0.00,WeatherDisplay:10.37,2013-09-28 05:43:00,
2013-09-28 01:45:00,48.3,48.3,30.29,NNE,14,0.0,0.0,100,0.00,CLR,OVC,0.00,WeatherDisplay:10.37,2013-09-28 05:45:00,
2013-09-28 01:47:00,48.4,48.4,30.28,NNE,14,0.0,0.0,100,0.00,CLR,OVC,0.00,WeatherDisplay:10.37,2013-09-28 05:47:00,
2013-09-28 01:48:00,48.4,48.4,30.29,NNE,14,0.0,0.0,100,0.00,CLR,OVC,0.00,WeatherDisplay:10.37,2013-09-28 05:48:00,
2013-09-28 01:50:00,48.4,48.1,30.29,NNE,14,0.0,0.0,99,0.00,CLR,OVC,0.00,WeatherDisplay:10.37,2013-09-28 05:50:00,
2013-09-28 01:52:00,48.4,48.1,30.29,NNE,14,0.0,0.0,99,0.00,CLR,OVC,0.00,WeatherDisplay:10.37,2013-09-28 05:52:00,
2013-09-28 01:53:00,48.4,48.1,30.29,NNE,14,0.0,0.0,99,0.00,CLR,OVC,0.00,WeatherDisplay:10.37,2013-09-28 05:53:00,
2013-09-28 01:54:00,48.4,48.1,30.29,NNE,14,0.0,0.0,99,0.00,CLR,OVC,0.00,WeatherDisplay:10.37,2013-09-28 05:54:00,
2013-09-28 01:55:00,48.4,48.1,30.29,NNE,14,0.0,0.0,99,0.00,CLR,OVC,0.00,WeatherDisplay:10.37,2013-09-28 05:55:00,
2013-09-28 01:57:00,48.3,48.0,30.29,NNE,14,0.0,0.0,99,0.00,CLR,OVC,0.00,WeatherDisplay:10.37,2013-09-28 05:57:00,
2013-09-28 01:58:00,48.3,48.3,30.29,NNE,14,0.0,0.0,100,0.00,CLR,OVC,0.00,WeatherDisplay:10.37,2013-09-28 05:58:00,
2013-09-28 01:59:00,48.3,48.3,30.29,NNE,14,0.0,0.0,100,0.00,CLR,OVC,0.00,WeatherDisplay:10.37,2013-09-28 05:59:00,
2013-09-28 02:00:00,48.3,48.0,30.29,NNE,14,0.0,0.0,99,0.00,CLR,OVC,0.00,WeatherDisplay:10.37,2013-09-28 06:00:00,
2013-09-28 02:02:00,48.3,48.3,30.29,NNE,14,0.0,0.0,100,0.00,CLR,OVC,0.00,WeatherDisplay:10.37,2013-09-28 06:02:00,
2013-09-28 02:03:00,48.3,48.0,30.29,NNE,14,0.0,0.0,99,0.00,CLR,OVC,0.00,WeatherDisplay:10.37,2013-09-28 06:03:00,
2013-09-28 02:04:00,48.3,48.0,30.29,NNE,14,0.0,0.0,99,0.00,CLR,OVC,0.00,WeatherDisplay:10.37,2013-09-28 06:04:00,
2013-09-28 02:05:00,48.3,48.3,30.29,NNE,14,0.0,0.0,100,0.00,CLR,OVC,0.00,WeatherDisplay:10.37,2013-09-28 06:05:00,
2013-09-28 02:07:00,48.1,47.8,30.29,NNE,14,0.0,0.0,99,0.00,CLR,OVC,0.00,WeatherDisplay:10.37,2013-09-28 06:07:00,
2013-09-28 02:09:00,48.0,47.7,30.29,NNE,14,0.0,0.0,99,0.00,CLR,OVC,0.00,WeatherDisplay:10.37,2013-09-28 06:09:00,
2013-09-28 02:10:00,47.9,47.6,30.29,NNE,14,0.0,0.0,99,0.00,CLR,OVC,0.00,WeatherDisplay:10.37,2013-09-28 06:10:00,
2013-09-28 02:12:00,47.7,47.4,30.29,NNE,14,0.0,0.0,99,0.00,CLR,OVC,0.00,WeatherDisplay:10.37,2013-09-28 06:12:00,
2013-09-28 02:14:00,47.7,47.4,30.29,NNE,14,0.0,0.0,99,0.00,CLR,OVC,0.00,WeatherDisplay:10.37,2013-09-28 06:14:00,
2013-09-28 02:15:00,47.6,47.3,30.29,NNE,14,0.0,0.0,99,0.00,CLR,OVC,0.00,WeatherDisplay:10.37,2013-09-28 06:15:00,
2013-09-28 02:16:00,47.5,47.2,30.29,NNE,14,0.0,0.0,99,0.00,CLR,OVC,0.00,WeatherDisplay:10.37,2013-09-28 06:16:00,
2013-09-28 02:17:00,47.4,47.1,30.29,NNE,14,0.0,0.0,99,0.00,CLR,OVC,0.00,WeatherDisplay:10.37,2013-09-28 06:17:00,
2013-09-28 02:19:00,47.4,47.1,30.29,NNE,14,0.0,0.0,99,0.00,CLR,OVC,0.00,WeatherDisplay:10.37,2013-09-28 06:19:00,
2013-09-28 02:20:00,47.3,47.3,30.29,NNE,14,0.0,0.0,100,0.00,CLR,OVC,0.00,WeatherDisplay:10.37,2013-09-28 06:20:00,
2013-09-28 02:21:00,47.2,47.2,30.29,NNE,14,0.0,0.0,100,0.00,CLR,OVC,0.00,WeatherDisplay:10.37,2013-09-28 06:21:00,
2013-09-28 02:22:00,47.1,46.8,30.29,NNE,14,0.0,0.0,99,0.00,CLR,OVC,0.00,WeatherDisplay:10.37,2013-09-28 06:22:00,
2013-09-28 02:24:00,47.1,47.1,30.29,NNE,14,0.0,0.0,100,0.00,CLR,OVC,0.00,WeatherDisplay:10.37,2013-09-28 06:24:00,
2013-09-28 02:25:00,47.0,47.0,30.29,NNE,14,0.0,0.0,100,0.00,CLR,OVC,0.00,WeatherDisplay:10.37,2013-09-28 06:25:00,
2013-09-28 02:26:00,46.9,46.9,30.29,NNE,14,0.0,0.0,100,0.00,CLR,OVC,0.00,WeatherDisplay:10.37,2013-09-28 06:26:00,
2013-09-28 02:28:00,46.9,46.9,30.29,NNE,14,0.0,0.0,100,0.00,CLR,OVC,0.00,WeatherDisplay:10.37,2013-09-28 06:28:00,
2013-09-28 02:29:00,46.9,46.9,30.29,NNE,14,0.0,0.0,100,0.00,CLR,OVC,0.00,WeatherDisplay:10.37,2013-09-28 06:29:00,
2013-09-28 02:30:00,46.9,46.9,30.29,NNE,14,0.0,0.0,100,0.00,CLR,OVC,0.00,WeatherDisplay:10.37,2013-09-28 06:30:00,
2013-09-28 02:31:00,46.9,46.6,30.29,NNE,14,0.0,0.0,99,0.00,CLR,OVC,0.00,WeatherDisplay:10.37,2013-09-28 06:31:00,
2013-09-28 02:33:00,46.9,46.9,30.29,NNE,14,0.0,0.0,100,0.00,CLR,OVC,0.00,WeatherDisplay:10.37,2013-09-28 06:33:00,
2013-09-28 02:34:00,46.9,46.9,30.29,NNE,14,0.0,0.0,100,0.00,CLR,OVC,0.00,WeatherDisplay:10.37,2013-09-28 06:34:00,
2013-09-28 02:35:00,46.9,46.9,30.29,NNE,14,0.0,0.0,100,0.00,CLR,OVC,0.00,WeatherDisplay:10.37,2013-09-28 06:35:00,
2013-09-28 02:37:00,46.9,46.9,30.29,NNE,14,0.0,0.0,100,0.00,CLR,OVC,0.00,WeatherDisplay:10.37,2013-09-28 06:37:00,
2013-09-28 02:38:00,46.9,46.9,30.29,NNE,14,0.0,0.0,100,0.00,CLR,OVC,0.00,WeatherDisplay:10.37,2013-09-28 06:38:00,
2013-09-28 02:39:00,46.9,46.9,30.29,NNE,14,0.0,0.0,100,0.00,CLR,OVC,0.00,WeatherDisplay:10.37,2013-09-28 06:39:00,
2013-09-28 02:40:00,47.0,47.0,30.29,NNE,14,0.0,0.0,100,0.00,CLR,OVC,0.00,WeatherDisplay:10.37,2013-09-28 06:40:00,
2013-09-28 02:42:00,47.0,47.0,30.29,NNE,14,0.0,0.0,100,0.00,CLR,OVC,0.00,WeatherDisplay:10.37,2013-09-28 06:42:00,
2013-09-28 02:44:00,47.0,47.0,30.29,NNE,14,0.0,0.0,100,0.00,CLR,OVC,0.00,WeatherDisplay:10.37,2013-09-28 06:44:00,
2013-09-28 02:45:00,47.0,47.0,30.29,NNE,14,0.0,0.0,100,0.00,CLR,OVC,0.00,WeatherDisplay:10.37,2013-09-28 06:45:00,
2013-09-28 02:47:00,47.1,47.1,30.29,NNE,14,0.0,0.0,100,0.00,CLR,OVC,0.00,WeatherDisplay:10.37,2013-09-28 06:47:00,
2013-09-28 02:49:00,47.2,47.2,30.29,NNE,14,0.0,0.0,100,0.00,CLR,OVC,0.00,WeatherDisplay:10.37,2013-09-28 06:49:00,
2013-09-28 02:50:00,47.2,47.2,30.29,NNE,14,0.0,0.0,100,0.00,CLR,OVC,0.00,WeatherDisplay:10.37,2013-09-28 06:50:00,
2013-09-28 02:52:00,47.4,47.4,30.29,NNE,14,0.0,0.0,100,0.00,CLR,OVC,0.00,WeatherDisplay:10.37,2013-09-28 06:52:00,
2013-09-28 02:53:00,47.4,47.4,30.28,NNE,14,0.0,0.0,100,0.00,CLR,OVC,0.00,WeatherDisplay:10.37,2013-09-28 06:53:00,
2013-09-28 02:54:00,47.4,47.4,30.28,NNE,14,0.0,0.0,100,0.00,CLR,OVC,0.00,WeatherDisplay:10.37,2013-09-28 06:54:00,
2013-09-28 02:55:00,47.5,47.5,30.28,NNE,14,0.0,0.0,100,0.00,CLR,OVC,0.00,WeatherDisplay:10.37,2013-09-28 06:55:00,
2013-09-28 02:59:00,47.6,47.6,30.28,NNE,14,0.0,0.0,100,0.00,CLR,OVC,0.00,WeatherDisplay:10.37,2013-09-28 06:59:00,
2013-09-28 03:00:00,47.6,47.6,30.28,NNE,14,0.0,0.0,100,0.00,CLR,OVC,0.00,WeatherDisplay:10.37,2013-09-28 07:00:00,
2013-09-28 03:04:00,47.6,47.6,30.29,NNE,14,0.0,0.0,100,0.00,CLR,OVC,0.00,WeatherDisplay:10.37,2013-09-28 07:04:00,
2013-09-28 03:05:00,47.5,47.5,30.28,NNE,14,0.0,0.0,100,0.00,CLR,OVC,0.00,WeatherDisplay:10.37,2013-09-28 07:05:00,
2013-09-28 03:06:00,47.5,47.5,30.29,NNE,14,0.0,0.0,100,0.00,CLR,OVC,0.00,WeatherDisplay:10.37,2013-09-28 07:06:00,
2013-09-28 03:09:00,47.4,47.4,30.29,NNE,14,0.0,0.0,100,0.00,CLR,OVC,0.00,WeatherDisplay:10.37,2013-09-28 07:09:00,
2013-09-28 03:10:00,47.4,47.4,30.28,NNE,14,0.0,0.0,100,0.00,CLR,OVC,0.00,WeatherDisplay:10.37,2013-09-28 07:10:00,
2013-09-28 03:11:00,47.4,47.4,30.29,NNE,14,0.0,0.0,100,0.00,CLR,OVC,0.00,WeatherDisplay:10.37,2013-09-28 07:11:00,
2013-09-28 03:14:00,47.2,47.2,30.29,NNE,14,0.0,0.0,100,0.00,CLR,OVC,0.00,WeatherDisplay:10.37,2013-09-28 07:14:00,
2013-09-28 03:15:00,47.2,47.2,30.29,NNE,14,0.0,0.0,100,0.00,CLR,OVC,0.00,WeatherDisplay:10.37,2013-09-28 07:15:00,
2013-09-28 03:16:00,47.2,47.2,30.29,NNE,14,0.0,0.0,100,0.00,CLR,OVC,0.00,WeatherDisplay:10.37,2013-09-28 07:16:00,
2013-09-28 03:19:00,46.9,46.9,30.29,NNE,14,0.0,0.0,100,0.00,CLR,OVC,0.00,WeatherDisplay:10.37,2013-09-28 07:19:00,
2013-09-28 03:20:00,46.9,46.9,30.28,NNE,14,0.0,0.0,100,0.00,CLR,OVC,0.00,WeatherDisplay:10.37,2013-09-28 07:20:00,
2013-09-28 03:21:00,46.8,46.8,30.29,NNE,14,0.0,0.0,100,0.00,CLR,OVC,0.00,WeatherDisplay:10.37,2013-09-28 07:21:00,
2013-09-28 03:24:00,46.4,46.4,30.28,NNE,14,0.0,0.0,100,0.00,CLR,OVC,0.00,WeatherDisplay:10.37,2013-09-28 07:24:00,
2013-09-28 03:25:00,46.4,46.4,30.28,NNE,14,0.0,0.0,100,0.00,CLR,OVC,0.00,WeatherDisplay:10.37,2013-09-28 07:25:00,
2013-09-28 03:26:00,46.3,46.3,30.29,NNE,14,0.0,0.0,100,0.00,,OVC,0.00,WeatherDisplay:10.37,2013-09-28 07:26:00,
2013-09-28 03:29:00,46.2,46.2,30.29,NNE,14,0.0,0.0,100,0.00,,OVC,0.00,WeatherDisplay:10.37,2013-09-28 07:29:00,
2013-09-28 03:30:00,46.1,46.1,30.29,NNE,14,0.0,0.0,100,0.00,,OVC,0.00,WeatherDisplay:10.37,2013-09-28 07:30:00,
2013-09-28 03:31:00,46.1,46.1,30.29,NNE,14,0.0,0.0,100,0.00,,OVC,0.00,WeatherDisplay:10.37,2013-09-28 07:31:00,
2013-09-28 03:32:00,46.1,46.1,30.29,NNE,14,0.0,0.0,100,0.00,,OVC,0.00,WeatherDisplay:10.37,2013-09-28 07:32:00,
2013-09-28 03:34:00,46.1,46.1,30.29,NNE,14,0.0,0.0,100,0.00,,OVC,0.00,WeatherDisplay:10.37,2013-09-28 07:34:00,
2013-09-28 03:35:00,46.1,46.1,30.29,NNE,14,0.0,0.0,100,0.00,,OVC,0.00,WeatherDisplay:10.37,2013-09-28 07:35:00,
2013-09-28 03:36:00,46.1,46.1,30.29,NNE,14,0.0,0.0,100,0.00,,OVC,0.00,WeatherDisplay:10.37,2013-09-28 07:36:00,
2013-09-28 03:37:00,46.0,46.0,30.29,NNE,14,0.0,0.0,100,0.00,,OVC,0.00,WeatherDisplay:10.37,2013-09-28 07:37:00,
2013-09-28 03:39:00,46.0,46.0,30.29,NNE,14,0.0,0.0,100,0.00,,OVC,0.00,WeatherDisplay:10.37,2013-09-28 07:39:00,
2013-09-28 03:40:00,46.0,46.0,30.29,NNE,14,0.0,0.0,100,0.00,,OVC,0.00,WeatherDisplay:10.37,2013-09-28 07:40:00,
2013-09-28 03:41:00,45.9,45.9,30.29,NNE,14,0.0,0.0,100,0.00,,OVC,0.00,WeatherDisplay:10.37,2013-09-28 07:41:00,
2013-09-28 03:42:00,45.9,45.9,30.29,NNE,14,0.0,0.0,100,0.00,,OVC,0.00,WeatherDisplay:10.37,2013-09-28 07:42:00,
2013-09-28 03:43:00,45.8,45.5,30.29,NNE,14,0.0,0.0,99,0.00,,OVC,0.00,WeatherDisplay:10.37,2013-09-28 07:43:00,
2013-09-28 03:44:00,45.8,45.8,30.29,NNE,14,0.0,0.0,100,0.00,,OVC,0.00,WeatherDisplay:10.37,2013-09-28 07:44:00,
2013-09-28 03:45:00,45.8,45.8,30.29,NNE,14,0.0,0.0,100,0.00,,OVC,0.00,WeatherDisplay:10.37,2013-09-28 07:45:00,
2013-09-28 03:46:00,45.7,45.7,30.29,NNE,14,0.0,0.0,100,0.00,,OVC,0.00,WeatherDisplay:10.37,2013-09-28 07:46:00,
2013-09-28 03:47:00,45.7,45.7,30.29,NNE,14,0.0,0.0,100,0.00,,OVC,0.00,WeatherDisplay:10.37,2013-09-28 07:47:00,
2013-09-28 03:48:00,45.7,45.7,30.29,NNE,14,0.0,0.0,100,0.00,,OVC,0.00,WeatherDisplay:10.37,2013-09-28 07:48:00,
2013-09-28 03:49:00,45.6,45.6,30.29,NNE,14,0.0,0.0,100,0.00,,OVC,0.00,WeatherDisplay:10.37,2013-09-28 07:49:00,
2013-09-28 03:50:00,45.6,45.6,30.29,NNE,14,0.0,0.0,100,0.00,,OVC,0.00,WeatherDisplay:10.37,2013-09-28 07:50:00,
2013-09-28 03:52:00,45.6,45.6,30.30,NNE,14,0.0,0.0,100,0.00,,OVC,0.00,WeatherDisplay:10.37,2013-09-28 07:52:00,
2013-09-28 03:53:00,45.5,45.5,30.30,NNE,14,0.0,0.0,100,0.00,,OVC,0.00,WeatherDisplay:10.37,2013-09-28 07:53:00,
2013-09-28 03:54:00,45.5,45.5,30.29,NNE,14,0.0,0.0,100,0.00,,OVC,0.00,WeatherDisplay:10.37,2013-09-28 07:54:00,
2013-09-28 03:55:00,45.5,45.5,30.29,NNE,14,0.0,0.0,100,0.00,,OVC,0.00,WeatherDisplay:10.37,2013-09-28 07:55:00,
2013-09-28 03:57:00,45.4,45.4,30.29,NNE,14,0.0,0.0,100,0.00,,OVC,0.00,WeatherDisplay:10.37,2013-09-28 07:57:00,
2013-09-28 03:58:00,45.4,45.4,30.29,NNE,14,0.0,0.0,100,0.00,,OVC,0.00,WeatherDisplay:10.37,2013-09-28 07:58:00,
2013-09-28 03:59:00,45.4,45.4,30.29,NNE,14,0.0,0.0,100,0.00,,OVC,0.00,WeatherDisplay:10.37,2013-09-28 07:59:00,
2013-09-28 04:00:00,45.4,45.4,30.29,NNE,14,0.0,0.0,100,0.00,,OVC,0.00,WeatherDisplay:10.37,2013-09-28 08:00:00,
2013-09-28 04:02:00,45.3,45.3,30.29,NNE,14,0.0,0.0,100,0.00,,OVC,0.00,WeatherDisplay:10.37,2013-09-28 08:02:00,
2013-09-28 04:03:00,45.3,45.3,30.29,NNE,14,0.0,0.0,100,0.00,,OVC,0.00,WeatherDisplay:10.37,2013-09-28 08:03:00,
2013-09-28 04:04:00,45.3,45.3,30.29,NNE,14,0.0,0.0,100,0.00,,OVC,0.00,WeatherDisplay:10.37,2013-09-28 08:04:00,
2013-09-28 04:05:00,45.3,45.3,30.29,NNE,14,0.0,0.0,100,0.00,,OVC,0.00,WeatherDisplay:10.37,2013-09-28 08:05:00,
2013-09-28 04:07:00,45.3,45.3,30.29,NNE,14,0.0,0.0,100,0.00,,OVC,0.00,WeatherDisplay:10.37,2013-09-28 08:07:00,
2013-09-28 04:09:00,45.3,45.3,30.29,NNE,14,0.0,0.0,100,0.00,,OVC,0.00,WeatherDisplay:10.37,2013-09-28 08:09:00,
2013-09-28 04:10:00,45.3,45.3,30.29,NNE,14,0.0,0.0,100,0.00,,OVC,0.00,WeatherDisplay:10.37,2013-09-28 08:10:00,
2013-09-28 04:12:00,45.3,45.3,30.29,NNE,14,0.0,0.0,100,0.00,,OVC,0.00,WeatherDisplay:10.37,2013-09-28 08:12:00,
2013-09-28 04:14:00,45.3,45.3,30.29,NNE,14,0.0,0.0,100,0.00,,OVC,0.00,WeatherDisplay:10.37,2013-09-28 08:14:00,
2013-09-28 04:15:00,45.3,45.3,30.29,NNE,14,0.0,0.0,100,0.00,,OVC,0.00,WeatherDisplay:10.37,2013-09-28 08:15:00,
2013-09-28 04:17:00,45.3,45.3,30.29,NNE,14,0.0,0.0,100,0.00,,OVC,0.00,WeatherDisplay:10.37,2013-09-28 08:17:00,
2013-09-28 04:19:00,45.3,45.3,30.30,NNE,14,0.0,0.0,100,0.00,,OVC,0.00,WeatherDisplay:10.37,2013-09-28 08:19:00,
2013-09-28 04:20:00,45.3,45.3,30.29,NNE,14,0.0,0.0,100,0.00,,OVC,0.00,WeatherDisplay:10.37,2013-09-28 08:20:00,
2013-09-28 04:22:00,45.2,45.2,30.29,NNE,14,0.0,0.0,100,0.00,,OVC,0.00,WeatherDisplay:10.37,2013-09-28 08:22:00,
2013-09-28 04:25:00,45.2,45.2,30.30,NNE,14,0.0,0.0,100,0.00,,OVC,0.00,WeatherDisplay:10.37,2013-09-28 08:25:00,
2013-09-28 04:26:00,45.2,45.2,30.29,NNE,14,0.0,0.0,100,0.00,,OVC,0.00,WeatherDisplay:10.37,2013-09-28 08:26:00,
2013-09-28 04:27:00,45.2,45.2,30.29,NNE,14,0.0,0.0,100,0.00,,OVC,0.00,WeatherDisplay:10.37,2013-09-28 08:27:00,
2013-09-28 04:30:00,45.1,45.1,30.30,NNE,14,0.0,0.0,100,0.00,,OVC,0.00,WeatherDisplay:10.37,2013-09-28 08:30:00,
2013-09-28 04:31:00,45.1,45.1,30.30,NNE,14,0.0,0.0,100,0.00,,OVC,0.00,WeatherDisplay:10.37,2013-09-28 08:31:00,
2013-09-28 04:32:00,45.1,45.1,30.29,NNE,14,0.0,0.0,100,0.00,,OVC,0.00,WeatherDisplay:10.37,2013-09-28 08:32:00,
2013-09-28 04:35:00,45.1,45.1,30.29,NNE,14,0.0,0.0,100,0.00,,OVC,0.00,WeatherDisplay:10.37,2013-09-28 08:35:00,
2013-09-28 04:36:00,45.1,45.1,30.29,NNE,14,0.0,0.0,100,0.00,,OVC,0.00,WeatherDisplay:10.37,2013-09-28 08:36:00,
2013-09-28 04:37:00,45.1,45.1,30.30,NNE,14,0.0,0.0,100,0.00,,OVC,0.00,WeatherDisplay:10.37,2013-09-28 08:37:00,
2013-09-28 04:40:00,45.2,45.2,30.30,NNE,14,0.0,0.0,100,0.00,,OVC,0.00,WeatherDisplay:10.37,2013-09-28 08:40:00,
2013-09-28 04:41:00,45.2,45.2,30.30,NNE,14,0.0,0.0,100,0.00,,OVC,0.00,WeatherDisplay:10.37,2013-09-28 08:41:00,
2013-09-28 04:42:00,45.2,45.2,30.30,NNE,14,0.0,0.0,100,0.00,,OVC,0.00,WeatherDisplay:10.37,2013-09-28 08:42:00,
2013-09-28 04:45:00,45.2,45.2,30.30,NNE,14,0.0,0.0,100,0.00,,OVC,0.00,WeatherDisplay:10.37,2013-09-28 08:45:00,
2013-09-28 04:46:00,45.2,45.2,30.30,NNE,14,0.0,0.0,100,0.00,,OVC,0.00,WeatherDisplay:10.37,2013-09-28 08:46:00,
2013-09-28 04:47:00,45.2,45.2,30.31,NNE,14,0.0,0.0,100,0.00,,OVC,0.00,WeatherDisplay:10.37,2013-09-28 08:47:00,
2013-09-28 04:50:00,45.1,45.1,30.30,NNE,14,0.0,0.0,100,0.00,,OVC,0.00,WeatherDisplay:10.37,2013-09-28 08:50:00,
2013-09-28 04:51:00,45.1,45.1,30.29,NNE,14,0.0,0.0,100,0.00,,OVC,0.00,WeatherDisplay:10.37,2013-09-28 08:51:00,
2013-09-28 04:52:00,45.1,45.1,30.29,NNE,14,0.0,0.0,100,0.00,,OVC,0.01,WeatherDisplay:10.37,2013-09-28 08:52:00,
2013-09-28 04:56:00,44.9,44.9,30.30,NNE,14,0.0,0.0,100,0.01,RA,OVC,0.01,WeatherDisplay:10.37,2013-09-28 08:56:00,
2013-09-28 04:57:00,44.8,44.8,30.30,NNE,14,0.0,0.0,100,0.01,RA,OVC,0.01,WeatherDisplay:10.37,2013-09-28 08:57:00,
2013-09-28 05:01:00,44.7,44.7,30.30,NNE,14,0.0,0.0,100,0.01,RA,OVC,0.01,WeatherDisplay:10.37,2013-09-28 09:01:00,
2013-09-28 05:02:00,44.7,44.7,30.30,NNE,14,0.0,0.0,100,0.01,,OVC,0.01,WeatherDisplay:10.37,2013-09-28 09:02:00,
2013-09-28 05:03:00,44.7,44.7,30.30,NNE,14,0.0,0.0,100,0.01,,OVC,0.01,WeatherDisplay:10.37,2013-09-28 09:03:00,
2013-09-28 05:06:00,44.7,44.7,30.30,NNE,14,0.0,0.0,100,0.01,CLR,OVC,0.01,WeatherDisplay:10.37,2013-09-28 09:06:00,
2013-09-28 05:07:00,44.6,44.6,30.30,NNE,14,0.0,0.0,100,0.01,CLR,OVC,0.01,WeatherDisplay:10.37,2013-09-28 09:07:00,
2013-09-28 05:08:00,44.6,44.6,30.30,NNE,14,0.0,0.0,100,0.01,CLR,OVC,0.01,WeatherDisplay:10.37,2013-09-28 09:08:00,
2013-09-28 05:11:00,44.6,44.6,30.30,NNE,14,0.0,0.0,100,0.01,,OVC,0.01,WeatherDisplay:10.37,2013-09-28 09:11:00,
2013-09-28 05:12:00,44.6,44.6,30.30,NNE,14,0.0,0.0,100,0.01,,OVC,0.01,WeatherDisplay:10.37,2013-09-28 09:12:00,
2013-09-28 05:13:00,44.5,44.5,30.30,NNE,14,0.0,0.0,100,0.01,,OVC,0.01,WeatherDisplay:10.37,2013-09-28 09:13:00,
2013-09-28 05:17:00,44.5,44.5,30.30,NNE,14,0.0,0.0,100,0.01,,OVC,0.01,WeatherDisplay:10.37,2013-09-28 09:17:00,
2013-09-28 05:18:00,44.5,44.5,30.30,NNE,14,0.0,0.0,100,0.01,,OVC,0.01,WeatherDisplay:10.37,2013-09-28 09:18:00,
2013-09-28 05:22:00,44.4,44.4,30.30,NNE,14,0.0,0.0,100,0.01,,OVC,0.01,WeatherDisplay:10.37,2013-09-28 09:22:00,
2013-09-28 05:23:00,44.4,44.4,30.30,NNE,14,0.0,0.0,100,0.01,,OVC,0.01,WeatherDisplay:10.37,2013-09-28 09:23:00,
2013-09-28 05:24:00,44.4,44.4,30.30,NNE,14,0.0,0.0,100,0.01,,OVC,0.01,WeatherDisplay:10.37,2013-09-28 09:24:00,
2013-09-28 05:27:00,44.4,44.4,30.30,NNE,14,0.0,0.0,100,0.01,,OVC,0.01,WeatherDisplay:10.37,2013-09-28 09:27:00,
2013-09-28 05:28:00,44.4,44.4,30.30,NNE,14,0.0,0.0,100,0.01,,OVC,0.01,WeatherDisplay:10.37,2013-09-28 09:28:00,
2013-09-28 05:29:00,44.4,44.4,30.31,NNE,14,0.0,0.0,100,0.01,,OVC,0.01,WeatherDisplay:10.37,2013-09-28 09:29:00,
2013-09-28 05:33:00,44.3,44.3,30.30,NNE,14,0.0,0.0,100,0.01,,OVC,0.01,WeatherDisplay:10.37,2013-09-28 09:33:00,
2013-09-28 05:34:00,44.3,44.3,30.31,NNE,14,0.0,0.0,100,0.01,,OVC,0.01,WeatherDisplay:10.37,2013-09-28 09:34:00,
2013-09-28 05:38:00,44.3,44.3,30.30,NNE,14,0.0,0.0,100,0.01,,OVC,0.01,WeatherDisplay:10.37,2013-09-28 09:38:00,
2013-09-28 05:39:00,44.4,44.4,30.31,NNE,14,0.0,0.0,100,0.01,,OVC,0.01,WeatherDisplay:10.37,2013-09-28 09:39:00,
2013-09-28 05:44:00,44.4,44.4,30.30,NNE,14,0.0,0.0,100,0.01,,OVC,0.01,WeatherDisplay:10.37,2013-09-28 09:44:00,
2013-09-28 05:49:00,44.4,44.4,30.31,NNE,14,0.0,0.0,100,0.01,,OVC,0.01,WeatherDisplay:10.37,2013-09-28 09:49:00,
2013-09-28 05:50:00,44.4,44.4,30.31,NNE,14,0.0,0.0,100,0.01,,OVC,0.01,WeatherDisplay:10.37,2013-09-28 09:50:00,
2013-09-28 05:54:00,44.3,44.3,30.31,NNE,14,0.0,0.0,100,0.00,,OVC,0.01,WeatherDisplay:10.37,2013-09-28 09:54:00,
2013-09-28 05:55:00,44.3,44.3,30.31,NNE,14,0.0,0.0,100,0.00,,OVC,0.01,WeatherDisplay:10.37,2013-09-28 09:55:00,
2013-09-28 05:59:00,44.1,44.1,30.31,NNE,14,0.0,0.0,100,0.00,,OVC,0.01,WeatherDisplay:10.37,2013-09-28 09:59:00,
2013-09-28 06:00:00,44.1,44.1,30.31,NNE,14,0.0,0.0,100,0.00,,OVC,0.01,WeatherDisplay:10.37,2013-09-28 10:00:00,
2013-09-28 06:04:00,44.0,44.0,30.31,NNE,14,0.0,0.0,100,0.00,,OVC,0.01,WeatherDisplay:10.37,2013-09-28 10:04:00,
2013-09-28 06:05:00,44.0,44.0,30.32,NNE,14,0.0,0.0,100,0.00,,OVC,0.01,WeatherDisplay:10.37,2013-09-28 10:05:00,
2013-09-28 06:06:00,44.0,44.0,30.32,NNE,14,0.0,0.0,100,0.00,,OVC,0.01,WeatherDisplay:10.37,2013-09-28 10:06:00,
2013-09-28 06:10:00,44.0,44.0,30.32,NNE,14,0.0,0.0,100,0.00,,OVC,0.01,WeatherDisplay:10.37,2013-09-28 10:10:00,
2013-09-28 06:11:00,44.0,44.0,30.32,NNE,14,0.0,0.0,100,0.00,,OVC,0.01,WeatherDisplay:10.37,2013-09-28 10:11:00,
2013-09-28 06:15:00,44.0,44.0,30.32,NNE,14,0.0,0.0,100,0.00,,OVC,0.01,WeatherDisplay:10.37,2013-09-28 10:15:00,
2013-09-28 06:16:00,44.0,44.0,30.32,NNE,14,0.0,0.0,100,0.00,,OVC,0.01,WeatherDisplay:10.37,2013-09-28 10:16:00,
2013-09-28 06:20:00,44.0,44.0,30.32,NNE,14,0.0,0.0,100,0.00,,OVC,0.01,WeatherDisplay:10.37,2013-09-28 10:20:00,
2013-09-28 06:21:00,43.9,43.9,30.32,NNE,14,0.0,0.0,100,0.00,,OVC,0.01,WeatherDisplay:10.37,2013-09-28 10:21:00,
2013-09-28 06:22:00,43.9,43.9,30.32,NNE,14,0.0,0.0,100,0.00,,OVC,0.01,WeatherDisplay:10.37,2013-09-28 10:22:00,
2013-09-28 06:25:00,43.9,43.9,30.32,NNE,14,0.0,0.0,100,0.00,,OVC,0.01,WeatherDisplay:10.37,2013-09-28 10:25:00,
2013-09-28 06:26:00,44.0,44.0,30.32,NNE,14,0.0,0.0,100,0.00,,OVC,0.01,WeatherDisplay:10.37,2013-09-28 10:26:00,
2013-09-28 06:27:00,43.9,43.9,30.32,NNE,14,0.0,0.0,100,0.00,,OVC,0.01,WeatherDisplay:10.37,2013-09-28 10:27:00,
2013-09-28 06:30:00,44.0,44.0,30.33,NNE,14,0.0,0.0,100,0.00,,OVC,0.01,WeatherDisplay:10.37,2013-09-28 10:30:00,
2013-09-28 06:31:00,44.0,44.0,30.33,NNE,14,0.0,0.0,100,0.00,,OVC,0.01,WeatherDisplay:10.37,2013-09-28 10:31:00,
2013-09-28 06:32:00,44.0,44.0,30.33,NNE,14,0.0,0.0,100,0.00,,OVC,0.01,WeatherDisplay:10.37,2013-09-28 10:32:00,
2013-09-28 06:35:00,44.1,44.1,30.33,NNE,14,0.0,0.0,100,0.00,,OVC,0.01,WeatherDisplay:10.37,2013-09-28 10:35:00,
2013-09-28 06:36:00,44.1,44.1,30.33,NNE,14,0.0,0.0,100,0.00,,OVC,0.01,WeatherDisplay:10.37,2013-09-28 10:36:00,
2013-09-28 06:37:00,44.2,44.2,30.32,NNE,14,0.0,0.0,100,0.00,,OVC,0.01,WeatherDisplay:10.37,2013-09-28 10:37:00,
2013-09-28 06:38:00,44.2,44.2,30.33,NNE,14,0.0,0.0,100,0.00,,OVC,0.01,WeatherDisplay:10.37,2013-09-28 10:38:00,
2013-09-28 06:41:00,44.3,44.3,30.33,NNE,14,0.0,0.0,100,0.00,,OVC,0.01,WeatherDisplay:10.37,2013-09-28 10:41:00,
2013-09-28 06:42:00,44.3,44.3,30.33,NNE,14,0.0,0.0,100,0.00,,OVC,0.01,WeatherDisplay:10.37,2013-09-28 10:42:00,
2013-09-28 06:45:00,44.4,44.4,30.33,NNE,14,0.0,0.0,100,0.00,,OVC,0.01,WeatherDisplay:10.37,2013-09-28 10:45:00,
2013-09-28 06:46:00,44.5,44.5,30.33,NNE,14,0.0,0.0,100,0.00,,OVC,0.01,WeatherDisplay:10.37,2013-09-28 10:46:00,
2013-09-28 06:47:00,44.6,44.6,30.33,NNE,14,0.0,0.0,100,0.00,,OVC,0.01,WeatherDisplay:10.37,2013-09-28 10:47:00,
2013-09-28 06:50:00,44.8,44.8,30.33,NNE,14,0.0,0.0,100,0.00,,OVC,0.01,WeatherDisplay:10.37,2013-09-28 10:50:00,
2013-09-28 06:51:00,44.8,44.8,30.33,NNE,14,0.0,0.0,100,0.00,,OVC,0.01,WeatherDisplay:10.37,2013-09-28 10:51:00,
2013-09-28 06:52:00,44.9,44.9,30.34,NNE,14,0.0,0.0,100,0.00,,OVC,0.01,WeatherDisplay:10.37,2013-09-28 10:52:00,
2013-09-28 06:56:00,45.1,45.1,30.33,NNE,14,0.0,0.0,100,0.00,,OVC,0.01,WeatherDisplay:10.37,2013-09-28 10:56:00,
2013-09-28 06:57:00,45.1,45.1,30.33,NNE,14,0.0,0.0,100,0.00,,OVC,0.01,WeatherDisplay:10.37,2013-09-28 10:57:00,
2013-09-28 06:58:00,45.1,45.1,30.33,NNE,14,0.0,0.0,100,0.00,,OVC,0.01,WeatherDisplay:10.37,2013-09-28 10:58:00,
2013-09-28 07:01:00,45.2,45.2,30.34,NNE,14,0.0,0.0,100,0.00,,OVC,0.01,WeatherDisplay:10.37,2013-09-28 11:01:00,
2013-09-28 07:02:00,45.2,45.2,30.34,NNE,14,0.0,0.0,100,0.00,,OVC,0.01,WeatherDisplay:10.37,2013-09-28 11:02:00,
2013-09-28 07:03:00,45.2,45.2,30.33,NNE,14,0.0,0.0,100,0.00,,OVC,0.01,WeatherDisplay:10.37,2013-09-28 11:03:00,
2013-09-28 07:06:00,45.3,45.3,30.33,NNE,14,0.0,0.0,100,0.00,,OVC,0.01,WeatherDisplay:10.37,2013-09-28 11:06:00,
2013-09-28 07:07:00,45.3,45.3,30.33,NNE,14,0.0,0.0,100,0.00,,OVC,0.01,WeatherDisplay:10.37,2013-09-28 11:07:00,
2013-09-28 07:08:00,45.3,45.3,30.33,NNE,14,0.0,0.0,100,0.00,,OVC,0.01,WeatherDisplay:10.37,2013-09-28 11:08:00,
2013-09-28 07:11:00,45.4,45.4,30.33,NNE,14,0.0,0.0,100,0.00,,OVC,0.01,WeatherDisplay:10.37,2013-09-28 11:11:00,
2013-09-28 07:12:00,45.4,45.4,30.34,NNE,14,0.0,0.0,100,0.00,,OVC,0.01,WeatherDisplay:10.37,2013-09-28 11:12:00,
2013-09-28 07:14:00,45.5,45.5,30.34,NNE,14,0.0,0.0,100,0.00,,OVC,0.01,WeatherDisplay:10.37,2013-09-28 11:14:00,
2013-09-28 07:17:00,45.5,45.5,30.34,NNE,14,0.0,0.0,100,0.00,,OVC,0.01,WeatherDisplay:10.37,2013-09-28 11:17:00,
2013-09-28 07:18:00,45.6,45.6,30.33,NNE,14,0.0,0.0,100,0.00,,OVC,0.01,WeatherDisplay:10.37,2013-09-28 11:18:00,
2013-09-28 07:19:00,45.6,45.6,30.33,NNE,14,0.0,0.0,100,0.00,,OVC,0.01,WeatherDisplay:10.37,2013-09-28 11:19:00,
2013-09-28 07:22:00,45.7,45.7,30.34,NNE,14,0.0,0.0,100,0.00,,OVC,0.01,WeatherDisplay:10.37,2013-09-28 11:22:00,
2013-09-28 07:23:00,45.7,45.7,30.34,NNE,14,0.0,0.0,100,0.00,,OVC,0.01,WeatherDisplay:10.37,2013-09-28 11:23:00,
2013-09-28 07:24:00,45.8,45.8,30.34,NNE,14,0.0,0.0,100,0.00,,OVC,0.01,WeatherDisplay:10.37,2013-09-28 11:24:00,
2013-09-28 07:25:00,45.8,45.8,30.34,NNE,14,0.0,0.0,100,0.00,,OVC,0.01,WeatherDisplay:10.37,2013-09-28 11:25:00,
2013-09-28 07:28:00,45.9,45.9,30.33,NNE,14,0.0,0.0,100,0.00,,OVC,0.01,WeatherDisplay:10.37,2013-09-28 11:28:00,
2013-09-28 07:29:00,45.9,45.9,30.33,NNE,14,0.0,0.0,100,0.00,,OVC,0.01,WeatherDisplay:10.37,2013-09-28 11:29:00,
2013-09-28 07:30:00,46.0,46.0,30.34,NNE,14,0.0,0.0,100,0.00,,OVC,0.01,WeatherDisplay:10.37,2013-09-28 11:30:00,
2013-09-28 07:33:00,46.1,46.1,30.34,NNE,14,0.0,0.0,100,0.00,,OVC,0.01,WeatherDisplay:10.37,2013-09-28 11:33:00,
2013-09-28 07:35:00,46.1,46.1,30.34,NNE,14,0.0,0.0,100,0.00,,OVC,0.01,WeatherDisplay:10.37,2013-09-28 11:35:00,
2013-09-28 07:38:00,46.3,46.3,30.33,NNE,14,0.0,0.0,100,0.00,,OVC,0.01,WeatherDisplay:10.37,2013-09-28 11:38:00,
2013-09-28 07:40:00,46.3,46.3,30.33,NNE,14,0.0,0.0,100,0.00,,OVC,0.01,WeatherDisplay:10.37,2013-09-28 11:40:00,
2013-09-28 07:43:00,46.5,46.5,30.33,NNE,14,0.0,0.0,100,0.00,,OVC,0.01,WeatherDisplay:10.37,2013-09-28 11:43:00,
2013-09-28 07:44:00,46.5,46.5,30.33,NNE,14,0.0,0.0,100,0.00,CLR,OVC,0.01,WeatherDisplay:10.37,2013-09-28 11:44:00,
2013-09-28 07:45:00,46.5,46.5,30.33,NNE,14,0.0,0.0,100,0.00,CLR,OVC,0.01,WeatherDisplay:10.37,2013-09-28 11:45:00,
2013-09-28 07:46:00,46.6,46.6,30.33,NNE,14,0.0,0.0,100,0.00,CLR,OVC,0.01,WeatherDisplay:10.37,2013-09-28 11:46:00,
2013-09-28 07:48:00,46.7,46.7,30.33,NNE,14,0.0,0.0,100,0.00,CLR,OVC,0.01,WeatherDisplay:10.37,2013-09-28 11:48:00,
2013-09-28 07:49:00,46.8,46.8,30.33,NNE,14,0.0,0.0,100,0.00,CLR,OVC,0.01,WeatherDisplay:10.37,2013-09-28 11:49:00,
2013-09-28 07:50:00,46.9,46.9,30.33,NNE,14,0.0,0.0,100,0.00,CLR,OVC,0.01,WeatherDisplay:10.37,2013-09-28 11:50:00,
2013-09-28 07:51:00,46.9,46.9,30.33,NNE,14,0.0,0.0,100,0.00,CLR,OVC,0.01,WeatherDisplay:10.37,2013-09-28 11:51:00,
2013-09-28 07:54:00,47.1,47.1,30.33,NNE,14,0.0,0.0,100,0.00,CLR,OVC,0.01,WeatherDisplay:10.37,2013-09-28 11:54:00,
2013-09-28 07:55:00,47.1,47.1,30.33,NNE,14,0.0,0.0,100,0.00,CLR,OVC,0.01,WeatherDisplay:10.37,2013-09-28 11:55:00,
2013-09-28 07:56:00,47.2,47.2,30.33,NNE,14,0.0,0.0,100,0.00,CLR,OVC,0.01,WeatherDisplay:10.37,2013-09-28 11:56:00,
2013-09-28 07:59:00,47.3,47.3,30.33,NNE,14,0.0,0.0,100,0.00,CLR,OVC,0.01,WeatherDisplay:10.37,2013-09-28 11:59:00,
2013-09-28 08:00:00,47.3,47.3,30.33,NNE,14,0.0,0.0,100,0.00,CLR,OVC,0.01,WeatherDisplay:10.37,2013-09-28 12:00:00,
2013-09-28 08:01:00,47.4,47.4,30.33,NNE,14,0.0,0.0,100,0.00,CLR,OVC,0.01,WeatherDisplay:10.37,2013-09-28 12:01:00,
2013-09-28 08:04:00,47.5,47.5,30.34,NNE,14,0.0,0.0,100,0.00,CLR,OVC,0.01,WeatherDisplay:10.37,2013-09-28 12:04:00,
2013-09-28 08:05:00,47.6,47.6,30.34,NNE,14,0.0,0.0,100,0.00,CLR,OVC,0.01,WeatherDisplay:10.37,2013-09-28 12:05:00,
2013-09-28 08:06:00,47.7,47.7,30.33,NNE,14,0.0,0.0,100,0.00,CLR,OVC,0.01,WeatherDisplay:10.37,2013-09-28 12:06:00,
2013-09-28 08:09:00,47.8,47.8,30.33,NNE,14,0.0,0.0,100,0.00,CLR,OVC,0.01,WeatherDisplay:10.37,2013-09-28 12:09:00,
2013-09-28 08:10:00,47.9,47.9,30.34,NNE,14,0.0,0.0,100,0.00,CLR,OVC,0.01,WeatherDisplay:10.37,2013-09-28 12:10:00,
2013-09-28 08:12:00,47.9,47.9,30.34,NNE,14,0.0,0.0,100,0.00,CLR,OVC,0.01,WeatherDisplay:10.37,2013-09-28 12:12:00,
2013-09-28 08:14:00,48.1,48.1,30.34,NNE,14,0.0,0.0,100,0.00,CLR,OVC,0.01,WeatherDisplay:10.37,2013-09-28 12:14:00,
2013-09-28 08:15:00,48.1,48.1,30.34,NNE,14,0.0,0.0,100,0.00,CLR,OVC,0.01,WeatherDisplay:10.37,2013-09-28 12:15:00,
2013-09-28 08:17:00,48.2,48.2,30.34,NNE,14,0.0,1.0,100,0.00,CLR,OVC,0.01,WeatherDisplay:10.37,2013-09-28 12:17:00,
2013-09-28 08:19:00,48.3,48.3,30.34,NNE,14,1.5,2.3,100,0.00,CLR,OVC,0.01,WeatherDisplay:10.37,2013-09-28 12:19:00,
2013-09-28 08:20:00,48.3,48.3,30.34,NNE,14,1.1,2.3,100,0.00,CLR,OVC,0.01,WeatherDisplay:10.37,2013-09-28 12:20:00,
2013-09-28 08:21:00,48.3,48.3,30.35,NNE,14,0.2,1.2,100,0.00,CLR,OVC,0.01,WeatherDisplay:10.37,2013-09-28 12:21:00,
2013-09-28 08:22:00,48.3,48.3,30.35,NNE,14,1.1,2.3,100,0.00,CLR,OVC,0.01,WeatherDisplay:10.37,2013-09-28 12:22:00,
2013-09-28 08:24:00,48.3,48.3,30.35,NNE,14,1.0,2.3,100,0.00,CLR,OVC,0.01,WeatherDisplay:10.37,2013-09-28 12:24:00,
2013-09-28 08:25:00,48.3,48.3,30.34,NNE,14,0.6,2.3,100,0.00,CLR,OVC,0.01,WeatherDisplay:10.37,2013-09-28 12:25:00,
2013-09-28 08:26:00,48.3,48.3,30.34,NNE,14,0.2,1.0,100,0.00,CLR,OVC,0.01,WeatherDisplay:10.37,2013-09-28 12:26:00,
2013-09-28 08:27:00,48.4,48.4,30.34,NNE,14,0.1,2.3,100,0.00,CLR,OVC,0.01,WeatherDisplay:10.37,2013-09-28 12:27:00,
2013-09-28 08:29:00,48.5,48.5,30.34,NNE,14,1.8,3.5,100,0.00,CLR,OVC,0.01,WeatherDisplay:10.37,2013-09-28 12:29:00,
2013-09-28 08:30:00,48.5,48.5,30.34,NNE,14,1.7,3.5,100,0.00,CLR,OVC,0.01,WeatherDisplay:10.37,2013-09-28 12:30:00,
2013-09-28 08:31:00,48.5,48.5,30.34,NNE,14,1.5,3.5,100,0.00,CLR,OVC,0.01,WeatherDisplay:10.37,2013-09-28 12:31:00,
2013-09-28 08:32:00,48.6,48.6,30.34,NNE,14,1.7,3.5,100,0.00,CLR,OVC,0.01,WeatherDisplay:10.37,2013-09-28 12:32:00,
2013-09-28 08:34:00,48.7,48.7,30.34,NNE,14,1.8,3.5,100,0.00,CLR,OVC,0.01,WeatherDisplay:10.37,2013-09-28 12:34:00,
2013-09-28 08:35:00,48.8,48.8,30.34,NNE,14,0.8,3.5,100,0.00,CLR,OVC,0.01,WeatherDisplay:10.37,2013-09-28 12:35:00,
2013-09-28 08:36:00,48.9,48.9,30.34,NNE,14,1.4,2.3,100,0.00,CLR,OVC,0.01,WeatherDisplay:10.37,2013-09-28 12:36:00,
2013-09-28 08:37:00,49.0,49.0,30.34,NNE,14,1.1,2.3,100,0.00,CLR,OVC,0.01,WeatherDisplay:10.37,2013-09-28 12:37:00,
2013-09-28 08:38:00,49.0,49.0,30.34,NNE,14,0.3,2.3,100,0.00,CLR,OVC,0.01,WeatherDisplay:10.37,2013-09-28 12:38:00,
2013-09-28 08:39:00,49.1,49.1,30.34,NNE,14,0.2,1.2,100,0.00,CLR,OVC,0.01,WeatherDisplay:10.37,2013-09-28 12:39:00,
2013-09-28 08:40:00,49.1,49.1,30.34,NNE,14,1.0,2.3,100,0.00,CLR,OVC,0.01,WeatherDisplay:10.37,2013-09-28 12:40:00,
2013-09-28 08:42:00,49.2,49.2,30.34,NNE,14,1.3,2.3,100,0.00,CLR,OVC,0.01,WeatherDisplay:10.37,2013-09-28 12:42:00,
2013-09-28 08:43:00,49.3,49.3,30.34,NNE,14,0.9,2.3,100,0.00,CLR,OVC,0.01,WeatherDisplay:10.37,2013-09-28 12:43:00,
2013-09-28 08:44:00,49.4,49.4,30.34,NNE,14,0.5,2.3,100,0.00,CLR,OVC,0.01,WeatherDisplay:10.37,2013-09-28 12:44:00,
2013-09-28 08:45:00,49.5,49.5,30.34,NNE,14,0.6,1.2,100,0.00,CLR,OVC,0.01,WeatherDisplay:10.37,2013-09-28 12:45:00,
2013-09-28 08:47:00,49.6,49.6,30.34,NNE,14,0.4,1.2,100,0.00,CLR,OVC,0.01,WeatherDisplay:10.37,2013-09-28 12:47:00,
2013-09-28 08:48:00,49.6,49.6,30.34,NNE,14,0.4,1.2,100,0.00,CLR,OVC,0.01,WeatherDisplay:10.37,2013-09-28 12:48:00,
2013-09-28 08:49:00,49.7,49.7,30.34,NNE,14,0.1,1.2,100,0.00,CLR,OVC,0.01,WeatherDisplay:10.37,2013-09-28 12:49:00,
2013-09-28 08:50:00,49.8,49.8,30.34,NNE,14,0.2,1.2,100,0.00,CLR,OVC,0.01,WeatherDisplay:10.37,2013-09-28 12:50:00,
2013-09-28 08:52:00,49.9,49.9,30.34,NNE,14,1.0,2.3,100,0.00,CLR,OVC,0.01,WeatherDisplay:10.37,2013-09-28 12:52:00,
2013-09-28 08:53:00,50.0,50.0,30.34,NNE,14,2.0,3.5,100,0.00,CLR,OVC,0.01,WeatherDisplay:10.37,2013-09-28 12:53:00,
2013-09-28 08:54:00,50.1,50.1,30.34,NNE,14,2.2,3.5,100,0.00,CLR,OVC,0.01,WeatherDisplay:10.37,2013-09-28 12:54:00,
2013-09-28 08:55:00,50.1,50.1,30.34,NNE,14,2.0,3.5,100,0.00,CLR,OVC,0.01,WeatherDisplay:10.37,2013-09-28 12:55:00,
2013-09-28 08:57:00,50.2,50.2,30.34,NNE,14,1.3,3.5,100,0.00,CLR,OVC,0.01,WeatherDisplay:10.37,2013-09-28 12:57:00,
2013-09-28 08:58:00,50.2,50.2,30.34,NNE,14,0.3,2.3,100,0.00,CLR,OVC,0.01,WeatherDisplay:10.37,2013-09-28 12:58:00,
2013-09-28 08:59:00,50.2,50.2,30.34,NNE,14,0.0,3.0,100,0.00,CLR,OVC,0.01,WeatherDisplay:10.37,2013-09-28 12:59:00,
2013-09-28 09:00:00,50.2,50.2,30.34,NNE,14,0.0,0.0,100,0.00,CLR,OVC,0.01,WeatherDisplay:10.37,2013-09-28 13:00:00,
2013-09-28 09:01:00,50.2,50.2,30.34,NNE,14,0.1,1.0,100,0.00,CLR,OVC,0.01,WeatherDisplay:10.37,2013-09-28 13:01:00,
2013-09-28 09:02:00,50.3,50.3,30.34,NNE,14,1.4,2.3,100,0.00,CLR,OVC,0.01,WeatherDisplay:10.37,2013-09-28 13:02:00,
2013-09-28 09:04:00,50.4,50.4,30.34,NNE,14,0.0,1.2,100,0.00,CLR,OVC,0.01,WeatherDisplay:10.37,2013-09-28 13:04:00,
2013-09-28 09:05:00,50.4,50.4,30.35,NNE,14,0.7,2.3,100,0.00,CLR,OVC,0.01,WeatherDisplay:10.37,2013-09-28 13:05:00,
2013-09-28 09:06:00,50.4,50.4,30.35,NNE,14,1.5,3.5,100,0.00,CLR,OVC,0.01,WeatherDisplay:10.37,2013-09-28 13:06:00,
2013-09-28 09:07:00,50.4,50.4,30.34,NNE,14,0.8,2.3,100,0.00,CLR,OVC,0.01,WeatherDisplay:10.37,2013-09-28 13:07:00,
2013-09-28 09:09:00,50.4,50.4,30.34,NNE,14,0.2,1.2,100,0.00,CLR,OVC,0.01,WeatherDisplay:10.37,2013-09-28 13:09:00,
2013-09-28 09:10:00,50.4,50.4,30.34,NNE,14,0.1,1.2,100,0.00,CLR,OVC,0.01,WeatherDisplay:10.37,2013-09-28 13:10:00,
2013-09-28 09:11:00,50.4,50.4,30.34,NNE,14,0.3,1.2,100,0.00,CLR,OVC,0.01,WeatherDisplay:10.37,2013-09-28 13:11:00,
2013-09-28 09:12:00,50.5,50.5,30.34,NNE,14,0.5,1.2,100,0.00,CLR,OVC,0.01,WeatherDisplay:10.37,2013-09-28 13:12:00,
2013-09-28 09:14:00,50.5,50.5,30.35,NNE,14,0.9,2.0,100,0.00,CLR,OVC,0.01,WeatherDisplay:10.37,2013-09-28 13:14:00,
2013-09-28 09:15:00,50.6,50.6,30.34,NNE,14,1.2,2.3,100,0.00,CLR,OVC,0.01,WeatherDisplay:10.37,2013-09-28 13:15:00,
2013-09-28 09:16:00,50.6,50.6,30.35,NNE,14,0.4,2.3,100,0.00,CLR,OVC,0.01,WeatherDisplay:10.37,2013-09-28 13:16:00,
2013-09-28 09:18:00,50.7,50.7,30.35,NNE,14,0.0,0.0,100,0.00,CLR,OVC,0.01,WeatherDisplay:10.37,2013-09-28 13:18:00,
2013-09-28 09:19:00,50.8,50.8,30.35,NNE,14,1.4,3.5,100,0.00,CLR,OVC,0.01,WeatherDisplay:10.37,2013-09-28 13:19:00,
2013-09-28 09:20:00,50.9,50.9,30.35,NNE,14,0.9,3.5,100,0.00,CLR,OVC,0.01,WeatherDisplay:10.37,2013-09-28 13:20:00,
2013-09-28 09:21:00,51.0,51.0,30.35,NNE,14,1.5,3.5,100,0.00,CLR,OVC,0.01,WeatherDisplay:10.37,2013-09-28 13:21:00,
2013-09-28 09:23:00,51.1,51.1,30.35,NNE,14,1.3,2.3,100,0.00,CLR,OVC,0.01,WeatherDisplay:10.37,2013-09-28 13:23:00,
2013-09-28 09:24:00,51.1,51.1,30.35,NNE,14,0.6,2.3,100,0.00,CLR,OVC,0.01,WeatherDisplay:10.37,2013-09-28 13:24:00,
2013-09-28 09:25:00,51.2,51.2,30.34,NNE,14,0.6,1.2,100,0.00,CLR,OVC,0.01,WeatherDisplay:10.37,2013-09-28 13:25:00,
2013-09-28 09:26:00,51.2,51.2,30.34,NNE,14,0.9,2.3,100,0.00,CLR,OVC,0.01,WeatherDisplay:10.37,2013-09-28 13:26:00,
2013-09-28 09:27:00,51.3,51.3,30.34,NNE,14,0.9,2.0,100,0.00,CLR,OVC,0.01,WeatherDisplay:10.37,2013-09-28 13:27:00,
2013-09-28 09:28:00,51.3,51.3,30.34,NNE,14,0.4,2.3,100,0.00,CLR,OVC,0.01,WeatherDisplay:10.37,2013-09-28 13:28:00,
2013-09-28 09:29:00,51.4,51.4,30.35,NNE,14,0.2,0.0,100,0.00,CLR,OVC,0.01,WeatherDisplay:10.37,2013-09-28 13:29:00,
2013-09-28 09:30:00,51.5,51.5,30.35,NNE,14,0.1,1.2,100,0.00,CLR,OVC,0.01,WeatherDisplay:10.37,2013-09-28 13:30:00,
2013-09-28 09:32:00,51.5,51.5,30.35,NNE,14,0.1,1.2,100,0.00,CLR,OVC,0.01,WeatherDisplay:10.37,2013-09-28 13:32:00,
2013-09-28 09:33:00,51.7,51.7,30.35,NNE,14,0.1,1.2,100,0.00,CLR,OVC,0.01,WeatherDisplay:10.37,2013-09-28 13:33:00,
2013-09-28 09:35:00,51.9,51.9,30.35,NNE,14,1.7,2.3,100,0.00,CLR,OVC,0.01,WeatherDisplay:10.37,2013-09-28 13:35:00,
2013-09-28 09:36:00,52.0,52.0,30.35,NNE,14,1.3,2.3,100,0.00,CLR,OVC,0.01,WeatherDisplay:10.37,2013-09-28 13:36:00,
2013-09-28 09:37:00,52.2,52.2,30.35,NNE,14,2.8,4.0,100,0.00,CLR,OVC,0.01,WeatherDisplay:10.37,2013-09-28 13:37:00,
2013-09-28 09:38:00,52.3,52.3,30.35,NNE,14,2.8,3.5,100,0.00,CLR,OVC,0.01,WeatherDisplay:10.37,2013-09-28 13:38:00,
2013-09-28 09:40:00,52.4,52.4,30.35,NNE,14,1.0,3.0,100,0.00,CLR,OVC,0.01,WeatherDisplay:10.37,2013-09-28 13:40:00,
2013-09-28 09:41:00,52.4,52.4,30.35,NNE,14,1.8,3.5,100,0.00,CLR,OVC,0.01,WeatherDisplay:10.37,2013-09-28 13:41:00,
2013-09-28 09:42:00,52.4,52.4,30.35,NNE,14,2.2,3.5,100,0.00,CLR,OVC,0.01,WeatherDisplay:10.37,2013-09-28 13:42:00,
2013-09-28 09:43:00,52.4,52.4,30.35,NNE,14,0.7,3.5,100,0.00,CLR,OVC,0.01,WeatherDisplay:10.37,2013-09-28 13:43:00,
2013-09-28 09:45:00,52.4,52.4,30.35,NNE,14,1.4,3.0,100,0.00,CLR,OVC,0.01,WeatherDisplay:10.37,2013-09-28 13:45:00,
2013-09-28 09:46:00,52.4,52.4,30.35,NNE,14,2.3,3.5,100,0.00,CLR,OVC,0.01,WeatherDisplay:10.37,2013-09-28 13:46:00,
2013-09-28 09:47:00,52.4,52.4,30.35,NNE,14,2.1,3.5,100,0.00,CLR,OVC,0.01,WeatherDisplay:10.37,2013-09-28 13:47:00,
2013-09-28 09:49:00,52.4,52.4,30.35,NNE,14,0.5,1.2,100,0.00,CLR,OVC,0.01,WeatherDisplay:10.37,2013-09-28 13:49:00,
2013-09-28 09:51:00,52.4,52.4,30.35,NNE,14,1.5,2.3,100,0.00,CLR,OVC,0.01,WeatherDisplay:10.37,2013-09-28 13:51:00,
2013-09-28 09:52:00,52.5,52.5,30.35,NNE,14,1.2,2.3,100,0.00,CLR,OVC,0.01,WeatherDisplay:10.37,2013-09-28 13:52:00,
2013-09-28 09:54:00,52.6,52.6,30.35,NNE,14,1.7,3.5,100,0.00,CLR,OVC,0.01,WeatherDisplay:10.37,2013-09-28 13:54:00,
2013-09-28 09:56:00,52.7,52.7,30.35,NNE,14,2.4,3.5,100,0.00,CLR,OVC,0.01,WeatherDisplay:10.37,2013-09-28 13:56:00,
2013-09-28 09:57:00,52.8,52.8,30.35,NNE,14,1.3,3.5,100,0.00,CLR,OVC,0.01,WeatherDisplay:10.37,2013-09-28 13:57:00,
2013-09-28 09:58:00,52.9,52.9,30.35,NNE,14,1.5,3.5,100,0.00,CLR,OVC,0.01,WeatherDisplay:10.37,2013-09-28 13:58:00,
2013-09-28 10:00:00,53.0,53.0,30.35,NNE,14,1.9,3.5,100,0.00,CLR,OVC,0.01,WeatherDisplay:10.37,2013-09-28 14:00:00,
2013-09-28 10:01:00,53.1,53.1,30.35,NNE,14,0.8,3.5,100,0.00,CLR,OVC,0.01,WeatherDisplay:10.37,2013-09-28 14:01:00,
2013-09-28 10:03:00,53.1,53.1,30.35,NNE,14,2.3,3.5,100,0.00,CLR,OVC,0.01,WeatherDisplay:10.37,2013-09-28 14:03:00,
2013-09-28 10:05:00,53.2,53.2,30.35,NNE,14,1.2,2.3,100,0.00,CLR,OVC,0.01,WeatherDisplay:10.37,2013-09-28 14:05:00,
2013-09-28 10:06:00,53.2,53.2,30.35,NNE,14,1.7,3.0,100,0.00,CLR,OVC,0.01,WeatherDisplay:10.37,2013-09-28 14:06:00,
2013-09-28 10:07:00,53.2,53.2,30.35,NNE,14,1.9,3.5,100,0.00,CLR,OVC,0.01,WeatherDisplay:10.37,2013-09-28 14:07:00,
2013-09-28 10:08:00,53.3,53.3,30.35,NNE,14,1.7,2.3,100,0.00,CLR,OVC,0.01,WeatherDisplay:10.37,2013-09-28 14:08:00,
2013-09-28 10:10:00,53.4,53.4,30.35,NNE,14,2.2,3.5,100,0.00,CLR,OVC,0.01,WeatherDisplay:10.37,2013-09-28 14:10:00,
2013-09-28 10:11:00,53.5,53.5,30.35,NNE,14,1.1,3.5,100,0.00,CLR,OVC,0.01,WeatherDisplay:10.37,2013-09-28 14:11:00,
2013-09-28 10:12:00,53.5,53.5,30.35,NNE,14,0.4,2.3,100,0.00,CLR,OVC,0.01,WeatherDisplay:10.37,2013-09-28 14:12:00,
2013-09-28 10:13:00,53.5,53.5,30.35,NNE,14,0.0,1.2,100,0.00,CLR,OVC,0.01,WeatherDisplay:10.37,2013-09-28 14:13:00,
2013-09-28 10:14:00,53.6,53.6,30.35,NNE,14,0.0,0.0,100,0.00,CLR,OVC,0.01,WeatherDisplay:10.37,2013-09-28 14:14:00,
2013-09-28 10:15:00,53.7,53.7,30.35,NNE,14,0.3,1.0,100,0.00,CLR,OVC,0.01,WeatherDisplay:10.37,2013-09-28 14:15:00,
2013-09-28 10:16:00,53.9,53.9,30.35,NNE,14,0.0,1.2,100,0.00,CLR,OVC,0.01,WeatherDisplay:10.37,2013-09-28 14:16:00,
2013-09-28 10:18:00,54.0,54.0,30.35,NNE,14,0.6,2.3,100,0.00,CLR,OVC,0.01,WeatherDisplay:10.37,2013-09-28 14:18:00,
2013-09-28 10:19:00,54.2,54.2,30.35,NNE,14,1.5,3.5,100,0.00,CLR,OVC,0.01,WeatherDisplay:10.37,2013-09-28 14:19:00,
2013-09-28 10:20:00,54.3,54.3,30.35,NNE,14,0.3,2.3,100,0.00,CLR,OVC,0.01,WeatherDisplay:10.37,2013-09-28 14:20:00,
2013-09-28 10:21:00,54.5,54.5,30.35,NNE,14,0.1,1.2,100,0.00,CLR,OVC,0.01,WeatherDisplay:10.37,2013-09-28 14:21:00,
2013-09-28 10:22:00,54.6,54.6,30.35,NNE,14,0.0,0.0,100,0.00,CLR,OVC,0.01,WeatherDisplay:10.37,2013-09-28 14:22:00,
2013-09-28 10:23:00,54.7,54.7,30.35,NNE,14,0.0,0.0,100,0.00,CLR,OVC,0.01,WeatherDisplay:10.37,2013-09-28 14:23:00,
2013-09-28 10:24:00,54.9,54.9,30.34,NNE,14,0.0,0.0,100,0.00,CLR,OVC,0.01,WeatherDisplay:10.37,2013-09-28 14:24:00,
2013-09-28 10:26:00,55.1,55.1,30.34,NNE,14,0.0,0.0,100,0.00,CLR,OVC,0.01,WeatherDisplay:10.37,2013-09-28 14:26:00,
2013-09-28 10:27:00,55.3,55.3,30.35,NNE,14,0.0,0.0,100,0.00,CLR,OVC,0.01,WeatherDisplay:10.37,2013-09-28 14:27:00,
2013-09-28 10:28:00,55.4,55.4,30.34,NNE,14,0.0,0.0,100,0.00,CLR,OVC,0.01,WeatherDisplay:10.37,2013-09-28 14:28:00,
2013-09-28 10:29:00,55.6,55.6,30.35,NNE,14,0.1,1.2,100,0.00,CLR,OVC,0.01,WeatherDisplay:10.37,2013-09-28 14:29:00,
2013-09-28 10:31:00,56.1,56.1,30.35,NNE,14,0.0,0.0,100,0.00,CLR,OVC,0.01,WeatherDisplay:10.37,2013-09-28 14:31:00,
2013-09-28 10:32:00,56.2,56.2,30.35,NNE,14,0.0,1.2,100,0.00,CLR,OVC,0.01,WeatherDisplay:10.37,2013-09-28 14:32:00,
2013-09-28 10:33:00,56.4,56.4,30.34,NNE,14,2.1,5.0,100,0.00,CLR,OVC,0.01,WeatherDisplay:10.37,2013-09-28 14:33:00,
2013-09-28 10:35:00,56.6,56.6,30.35,NNE,14,2.7,4.6,100,0.00,CLR,OVC,0.01,WeatherDisplay:10.37,2013-09-28 14:35:00,
2013-09-28 10:37:00,56.6,56.6,30.34,NNE,14,1.9,3.5,100,0.00,CLR,OVC,0.01,WeatherDisplay:10.37,2013-09-28 14:37:00,
2013-09-28 10:38:00,56.7,56.7,30.34,NNE,14,2.0,3.5,100,0.00,CLR,OVC,0.01,WeatherDisplay:10.37,2013-09-28 14:38:00,
2013-09-28 10:40:00,56.7,56.7,30.34,NNE,14,0.6,2.0,100,0.00,CLR,OVC,0.01,WeatherDisplay:10.37,2013-09-28 14:40:00,
2013-09-28 10:42:00,56.8,56.8,30.34,NNE,14,0.8,3.5,100,0.00,CLR,OVC,0.01,WeatherDisplay:10.37,2013-09-28 14:42:00,
2013-09-28 10:43:00,56.8,56.8,30.35,NNE,14,0.0,1.2,100,0.00,CLR,OVC,0.01,WeatherDisplay:10.37,2013-09-28 14:43:00,
2013-09-28 10:45:00,57.0,57.0,30.34,NNE,14,0.3,3.0,100,0.00,CLR,OVC,0.01,WeatherDisplay:10.37,2013-09-28 14:45:00,
2013-09-28 10:47:00,57.1,57.1,30.34,NNE,14,1.1,3.5,100,0.00,CLR,OVC,0.01,WeatherDisplay:10.37,2013-09-28 14:47:00,
2013-09-28 10:49:00,57.3,57.3,30.34,NNE,14,0.0,1.2,100,0.00,CLR,OVC,0.01,WeatherDisplay:10.37,2013-09-28 14:49:00,
2013-09-28 10:51:00,57.5,57.5,30.34,NNE,14,0.0,0.0,100,0.00,CLR,OVC,0.01,WeatherDisplay:10.37,2013-09-28 14:51:00,
2013-09-28 10:52:00,57.7,57.7,30.34,NNE,14,0.0,0.0,100,0.00,CLR,OVC,0.01,WeatherDisplay:10.37,2013-09-28 14:52:00,
2013-09-28 10:53:00,57.7,57.7,30.34,NNE,14,0.1,1.2,100,0.00,CLR,OVC,0.01,WeatherDisplay:10.37,2013-09-28 14:53:00,
2013-09-28 10:54:00,58.0,58.0,30.34,NNE,14,0.8,2.0,100,0.00,CLR,OVC,0.01,WeatherDisplay:10.37,2013-09-28 14:54:00,
2013-09-28 10:55:00,58.0,58.0,30.34,NNE,14,1.2,2.3,100,0.00,CLR,OVC,0.01,WeatherDisplay:10.37,2013-09-28 14:55:00,
2013-09-28 10:56:00,58.1,58.1,30.34,NNE,14,1.3,2.3,100,0.00,CLR,OVC,0.01,WeatherDisplay:10.37,2013-09-28 14:56:00,
2013-09-28 10:57:00,58.1,58.1,30.34,NNE,14,0.7,2.3,100,0.00,CLR,OVC,0.01,WeatherDisplay:10.37,2013-09-28 14:57:00,
2013-09-28 10:58:00,58.2,58.2,30.34,NNE,14,0.5,2.3,100,0.00,CLR,OVC,0.01,WeatherDisplay:10.37,2013-09-28 14:58:00,
2013-09-28 10:59:00,58.3,58.3,30.34,NNE,14,2.2,2.3,100,0.00,CLR,OVC,0.01,WeatherDisplay:10.37,2013-09-28 14:59:00,
2013-09-28 11:00:00,58.3,58.3,30.34,NNE,14,2.1,3.5,100,0.00,CLR,OVC,0.01,WeatherDisplay:10.37,2013-09-28 15:00:00,
2013-09-28 11:01:00,58.3,58.3,30.34,NNE,14,2.0,3.5,100,0.00,CLR,OVC,0.01,WeatherDisplay:10.37,2013-09-28 15:01:00,
2013-09-28 11:02:00,58.3,58.3,30.34,NNE,14,1.1,2.3,100,0.00,CLR,OVC,0.01,WeatherDisplay:10.37,2013-09-28 15:02:00,
2013-09-28 11:03:00,58.4,58.4,30.34,NNE,14,0.0,2.3,100,0.00,CLR,OVC,0.01,WeatherDisplay:10.37,2013-09-28 15:03:00,
2013-09-28 11:04:00,58.5,58.5,30.34,NNE,14,0.1,0.0,100,0.00,CLR,OVC,0.01,WeatherDisplay:10.37,2013-09-28 15:04:00,
2013-09-28 11:06:00,58.6,58.6,30.33,NNE,14,0.5,2.3,100,0.00,CLR,OVC,0.01,WeatherDisplay:10.37,2013-09-28 15:06:00,
2013-09-28 11:07:00,58.8,58.8,30.33,NNE,14,1.4,3.0,100,0.00,CLR,OVC,0.01,WeatherDisplay:10.37,2013-09-28 15:07:00,
2013-09-28 11:08:00,58.8,58.8,30.33,NNE,14,2.5,3.5,100,0.00,CLR,OVC,0.01,WeatherDisplay:10.37,2013-09-28 15:08:00,
2013-09-28 11:09:00,58.8,58.8,30.33,NNE,14,2.0,4.0,100,0.00,CLR,OVC,0.01,WeatherDisplay:10.37,2013-09-28 15:09:00,
2013-09-28 11:11:00,59.1,59.1,30.33,NNE,14,1.1,2.3,100,0.00,CLR,OVC,0.01,WeatherDisplay:10.37,2013-09-28 15:11:00,
2013-09-28 11:12:00,59.2,59.2,30.33,NNE,14,0.7,2.3,100,0.00,CLR,OVC,0.01,WeatherDisplay:10.37,2013-09-28 15:12:00,
2013-09-28 11:13:00,59.3,59.3,30.33,NNE,14,0.0,0.0,100,0.00,CLR,OVC,0.01,WeatherDisplay:10.37,2013-09-28 15:13:00,
2013-09-28 11:15:00,59.6,59.6,30.33,NNE,14,0.1,1.2,100,0.00,CLR,OVC,0.01,WeatherDisplay:10.37,2013-09-28 15:15:00,
2013-09-28 11:16:00,59.8,59.8,30.33,NNE,14,1.0,2.3,100,0.00,CLR,OVC,0.01,WeatherDisplay:10.37,2013-09-28 15:16:00,
2013-09-28 11:18:00,60.0,60.0,30.33,NNE,14,0.6,1.2,100,0.00,CLR,OVC,0.01,WeatherDisplay:10.37,2013-09-28 15:18:00,
2013-09-28 11:19:00,60.1,60.1,30.33,NNE,14,0.3,1.2,100,0.00,CLR,OVC,0.01,WeatherDisplay:10.37,2013-09-28 15:19:00,
2013-09-28 11:20:00,60.4,60.4,30.33,NNE,14,0.0,0.0,100,0.00,CLR,OVC,0.01,WeatherDisplay:10.37,2013-09-28 15:20:00,
2013-09-28 11:21:00,60.7,60.7,30.33,NNE,14,0.0,0.0,100,0.00,CLR,OVC,0.01,WeatherDisplay:10.37,2013-09-28 15:21:00,
2013-09-28 11:23:00,61.1,61.1,30.33,NNE,14,0.8,2.3,100,0.00,CLR,OVC,0.01,WeatherDisplay:10.37,2013-09-28 15:23:00,
2013-09-28 11:24:00,61.2,61.2,30.33,NNE,14,2.0,3.5,100,0.00,CLR,OVC,0.01,WeatherDisplay:10.37,2013-09-28 15:24:00,
2013-09-28 11:25:00,61.5,61.5,30.33,NNE,14,2.2,3.5,100,0.00,CLR,OVC,0.01,WeatherDisplay:10.37,2013-09-28 15:25:00,
2013-09-28 11:27:00,61.6,61.6,30.33,NNE,14,2.9,3.5,100,0.00,CLR,OVC,0.01,WeatherDisplay:10.37,2013-09-28 15:27:00,
2013-09-28 11:28:00,61.7,61.7,30.33,NNE,14,2.5,4.6,100,0.00,CLR,OVC,0.01,WeatherDisplay:10.37,2013-09-28 15:28:00,
2013-09-28 11:29:00,61.8,61.8,30.32,NNE,14,2.1,3.5,100,0.00,CLR,OVC,0.01,WeatherDisplay:10.37,2013-09-28 15:29:00,
2013-09-28 11:31:00,62.0,62.0,30.32,NNE,14,1.5,3.5,100,0.00,CLR,OVC,0.01,WeatherDisplay:10.37,2013-09-28 15:31:00,
2013-09-28 11:32:00,62.0,62.0,30.33,NNE,14,0.6,2.3,100,0.00,CLR,OVC,0.01,WeatherDisplay:10.37,2013-09-28 15:32:00,
2013-09-28 11:33:00,62.2,62.2,30.32,NNE,14,1.4,3.5,100,0.00,CLR,OVC,0.01,WeatherDisplay:10.37,2013-09-28 15:33:00,
2013-09-28 11:34:00,62.2,62.2,30.32,NNE,14,1.2,3.5,100,0.00,CLR,OVC,0.01,WeatherDisplay:10.37,2013-09-28 15:34:00,
2013-09-28 11:36:00,62.4,62.4,30.32,NNE,14,1.3,2.3,100,0.00,CLR,OVC,0.01,WeatherDisplay:10.37,2013-09-28 15:36:00,
2013-09-28 11:37:00,62.5,62.5,30.32,NNE,14,1.6,3.5,100,0.00,CLR,OVC,0.01,WeatherDisplay:10.37,2013-09-28 15:37:00,
2013-09-28 11:38:00,62.6,62.6,30.32,NNE,14,1.6,3.5,100,0.00,CLR,OVC,0.01,WeatherDisplay:10.37,2013-09-28 15:38:00,
2013-09-28 11:39:00,62.8,62.8,30.32,NNE,14,1.3,3.5,100,0.00,CLR,OVC,0.01,WeatherDisplay:10.37,2013-09-28 15:39:00,
2013-09-28 11:40:00,62.8,62.8,30.32,NNE,14,1.1,2.3,100,0.00,CLR,OVC,0.01,WeatherDisplay:10.37,2013-09-28 15:40:00,
2013-09-28 11:41:00,63.0,63.0,30.32,NNE,14,0.5,2.3,100,0.00,CLR,OVC,0.01,WeatherDisplay:10.37,2013-09-28 15:41:00,
2013-09-28 11:42:00,63.1,63.1,30.32,NNE,14,1.0,2.3,100,0.00,CLR,OVC,0.01,WeatherDisplay:10.37,2013-09-28 15:42:00,
2013-09-28 11:44:00,63.3,63.3,30.32,NNE,14,1.3,3.0,100,0.00,CLR,OVC,0.01,WeatherDisplay:10.37,2013-09-28 15:44:00,
2013-09-28 11:45:00,63.5,63.5,30.32,NNE,14,2.7,3.5,100,0.00,CLR,OVC,0.01,WeatherDisplay:10.37,2013-09-28 15:45:00,
2013-09-28 11:47:00,63.8,63.8,30.32,NNE,14,2.5,3.5,100,0.00,CLR,OVC,0.01,WeatherDisplay:10.37,2013-09-28 15:47:00,
2013-09-28 11:49:00,63.9,63.6,30.32,NNE,14,2.1,3.5,99,0.00,CLR,OVC,0.01,WeatherDisplay:10.37,2013-09-28 15:49:00,
2013-09-28 11:50:00,64.1,63.8,30.32,NNE,14,2.3,3.5,99,0.00,CLR,OVC,0.01,WeatherDisplay:10.37,2013-09-28 15:50:00,
2013-09-28 11:52:00,64.0,63.4,30.32,NNE,13,3.3,5.0,98,0.00,CLR,OVC,0.01,WeatherDisplay:10.37,2013-09-28 15:52:00,
2013-09-28 11:53:00,64.1,63.5,30.32,NNE,13,3.6,4.6,98,0.00,CLR,OVC,0.01,WeatherDisplay:10.37,2013-09-28 15:53:00,
2013-09-28 11:54:00,64.2,63.3,30.32,NNE,13,3.3,4.6,97,0.00,CLR,OVC,0.01,WeatherDisplay:10.37,2013-09-28 15:54:00,
2013-09-28 11:55:00,64.4,63.5,30.32,NNE,13,2.9,4.0,97,0.00,CLR,OVC,0.01,WeatherDisplay:10.37,2013-09-28 15:55:00,
2013-09-28 11:56:00,64.4,63.5,30.32,NNE,13,2.7,3.5,97,0.00,CLR,OVC,0.01,WeatherDisplay:10.37,2013-09-28 15:56:00,
2013-09-28 11:57:00,64.5,63.3,30.32,NNE,13,1.9,5.0,96,0.00,CLR,OVC,0.01,WeatherDisplay:10.37,2013-09-28 15:57:00,
2013-09-28 11:58:00,64.6,63.1,30.32,NNE,13,3.4,4.6,95,0.00,CLR,OVC,0.01,WeatherDisplay:10.37,2013-09-28 15:58:00,
2013-09-28 11:59:00,64.7,63.2,30.32,NNE,13,2.7,4.6,95,0.00,CLR,OVC,0.01,WeatherDisplay:10.37,2013-09-28 15:59:00,
2013-09-28 12:00:00,64.7,62.9,30.32,NNE,13,2.5,3.5,94,0.00,CLR,OVC,0.01,WeatherDisplay:10.37,2013-09-28 16:00:00,
2013-09-28 12:01:00,64.8,63.0,30.33,NNE,13,2.0,3.5,94,0.00,CLR,OVC,0.01,WeatherDisplay:10.37,2013-09-28 16:01:00,
2013-09-28 12:02:00,65.0,63.2,30.32,NNE,13,2.2,3.5,94,0.00,CLR,OVC,0.01,WeatherDisplay:10.37,2013-09-28 16:02:00,
2013-09-28 12:03:00,65.1,63.3,30.32,NNE,13,1.7,3.5,94,0.00,CLR,OVC,0.01,WeatherDisplay:10.37,2013-09-28 16:03:00,
2013-09-28 12:05:00,65.2,63.4,30.32,NNE,13,1.4,2.3,94,0.00,CLR,OVC,0.01,WeatherDisplay:10.37,2013-09-28 16:05:00,
2013-09-28 12:06:00,65.3,63.2,30.32,NNE,13,1.4,2.3,93,0.00,CLR,OVC,0.01,WeatherDisplay:10.37,2013-09-28 16:06:00,
2013-09-28 12:08:00,65.6,63.2,30.32,NNE,13,1.7,3.5,92,0.00,CLR,OVC,0.01,WeatherDisplay:10.37,2013-09-28 16:08:00,
2013-09-28 12:10:00,65.9,63.2,30.32,NNE,13,2.6,3.5,91,0.00,CLR,OVC,0.01,WeatherDisplay:10.37,2013-09-28 16:10:00,
2013-09-28 12:11:00,66.0,63.0,30.32,NNE,13,1.1,3.5,90,0.00,CLR,OVC,0.01,WeatherDisplay:10.37,2013-09-28 16:11:00,
2013-09-28 12:13:00,66.3,63.3,30.32,NNE,13,0.3,2.3,90,0.00,CLR,OVC,0.01,WeatherDisplay:10.37,2013-09-28 16:13:00,
2013-09-28 12:15:00,66.6,63.3,30.32,NNE,13,0.0,0.0,89,0.00,CLR,OVC,0.01,WeatherDisplay:10.37,2013-09-28 16:15:00,
2013-09-28 12:17:00,66.8,63.5,30.32,NNE,13,1.7,4.0,89,0.00,CLR,OVC,0.01,WeatherDisplay:10.37,2013-09-28 16:17:00,
2013-09-28 12:18:00,66.2,62.5,30.32,NNE,12,3.0,4.6,88,0.00,CLR,OVC,0.01,WeatherDisplay:10.37,2013-09-28 16:18:00,
2013-09-28 12:19:00,66.4,62.7,30.31,NNE,12,2.1,4.6,88,0.00,CLR,OVC,0.01,WeatherDisplay:10.37,2013-09-28 16:19:00,
2013-09-28 12:20:00,66.9,62.9,30.32,NNE,12,1.7,3.0,87,0.00,CLR,OVC,0.01,WeatherDisplay:10.37,2013-09-28 16:20:00,
2013-09-28 12:23:00,67.0,62.7,30.31,North,11,3.2,4.0,86,0.00,CLR,OVC,0.01,WeatherDisplay:10.37,2013-09-28 16:23:00,
2013-09-28 12:24:00,67.0,62.7,30.31,North,11,2.5,3.5,86,0.00,CLR,OVC,0.01,WeatherDisplay:10.37,2013-09-28 16:24:00,
2013-09-28 12:25:00,67.2,63.5,30.31,North,11,2.6,3.5,88,0.00,CLR,OVC,0.01,WeatherDisplay:10.37,2013-09-28 16:25:00,
2013-09-28 12:28:00,67.5,63.2,30.31,North,11,1.8,3.5,86,0.00,CLR,OVC,0.01,WeatherDisplay:10.37,2013-09-28 16:28:00,
2013-09-28 12:29:00,67.7,63.4,30.31,North,11,0.6,2.3,86,0.00,CLR,OVC,0.01,WeatherDisplay:10.37,2013-09-28 16:29:00,
2013-09-28 12:31:00,67.9,63.6,30.31,North,11,0.7,2.3,86,0.00,CLR,OVC,0.01,WeatherDisplay:10.37,2013-09-28 16:31:00,
2013-09-28 12:33:00,68.2,63.5,30.31,North,11,1.0,3.5,85,0.00,CLR,OVC,0.01,WeatherDisplay:10.37,2013-09-28 16:33:00,
2013-09-28 12:34:00,68.3,63.6,30.31,North,11,1.0,2.3,85,0.00,CLR,OVC,0.01,WeatherDisplay:10.37,2013-09-28 16:34:00,
2013-09-28 12:35:00,68.4,63.4,30.31,North,11,2.1,3.5,84,0.00,CLR,OVC,0.01,WeatherDisplay:10.37,2013-09-28 16:35:00,
2013-09-28 12:36:00,68.5,63.5,30.31,North,11,3.4,4.6,84,0.00,CLR,OVC,0.01,WeatherDisplay:10.37,2013-09-28 16:36:00,
2013-09-28 12:39:00,68.7,63.3,30.31,North,11,2.5,5.0,83,0.00,CLR,OVC,0.01,WeatherDisplay:10.37,2013-09-28 16:39:00,
2013-09-28 12:40:00,68.8,63.1,30.31,North,9,4.5,5.8,82,0.00,CLR,OVC,0.01,WeatherDisplay:10.37,2013-09-28 16:40:00,
2013-09-28 12:41:00,68.8,63.1,30.30,North,9,4.1,5.8,82,0.00,CLR,OVC,0.01,WeatherDisplay:10.37,2013-09-28 16:41:00,
2013-09-28 12:44:00,68.9,62.1,30.31,North,9,1.2,3.5,79,0.00,CLR,OVC,0.01,WeatherDisplay:10.37,2013-09-28 16:44:00,
2013-09-28 12:46:00,69.2,62.4,30.30,North,9,0.8,2.0,79,0.00,CLR,OVC,0.01,WeatherDisplay:10.37,2013-09-28 16:46:00,
2013-09-28 12:47:00,69.3,62.5,30.31,North,9,1.9,3.5,79,0.00,CLR,OVC,0.01,WeatherDisplay:10.37,2013-09-28 16:47:00,
2013-09-28 12:49:00,69.5,62.3,30.30,North,0,4.6,5.8,78,0.00,CLR,OVC,0.01,WeatherDisplay:10.37,2013-09-28 16:49:00,
2013-09-28 12:50:00,69.5,62.3,30.31,North,0,4.1,5.0,78,0.00,CLR,OVC,0.01,WeatherDisplay:10.37,2013-09-28 16:50:00,
2013-09-28 12:51:00,69.6,62.4,30.31,North,0,3.7,4.6,78,0.00,CLR,OVC,0.01,WeatherDisplay:10.37,2013-09-28 16:51:00,
2013-09-28 12:52:00,69.6,62.1,30.30,North,0,2.7,4.6,77,0.00,CLR,OVC,0.01,WeatherDisplay:10.37,2013-09-28 16:52:00,
2013-09-28 12:54:00,69.7,61.8,30.30,North,0,0.6,2.3,76,0.00,CLR,OVC,0.01,WeatherDisplay:10.37,2013-09-28 16:54:00,
2013-09-28 12:55:00,69.8,61.9,30.31,North,0,0.3,2.3,76,0.00,CLR,OVC,0.01,WeatherDisplay:10.37,2013-09-28 16:55:00,
2013-09-28 12:57:00,69.9,62.0,30.30,North,0,3.0,4.6,76,0.00,CLR,OVC,0.01,WeatherDisplay:10.37,2013-09-28 16:57:00,
2013-09-28 13:01:00,70.0,62.1,30.30,North,0,2.0,4.0,76,0.00,CLR,OVC,0.01,WeatherDisplay:10.37,2013-09-28 17:01:00,
2013-09-28 13:02:00,70.1,62.2,30.30,North,0,2.6,3.5,76,0.00,CLR,OVC,0.01,WeatherDisplay:10.37,2013-09-28 17:02:00,
2013-09-28 13:06:00,70.3,62.4,30.30,North,0,4.1,5.8,76,0.00,CLR,OVC,0.01,WeatherDisplay:10.37,2013-09-28 17:06:00,
2013-09-28 13:07:00,70.4,62.5,30.30,North,0,4.1,5.8,76,0.00,CLR,OVC,0.01,WeatherDisplay:10.37,2013-09-28 17:07:00,
2013-09-28 13:11:00,70.3,62.0,30.30,North,0,1.3,3.5,75,0.00,CLR,OVC,0.01,WeatherDisplay:10.37,2013-09-28 17:11:00,
2013-09-28 13:12:00,70.4,61.7,30.30,North,0,1.4,2.3,74,0.00,CLR,OVC,0.01,WeatherDisplay:10.37,2013-09-28 17:12:00,
2013-09-28 13:17:00,70.6,61.5,30.29,North,0,4.0,5.0,73,0.00,CLR,OVC,0.01,WeatherDisplay:10.37,2013-09-28 17:17:00,
2013-09-28 13:22:00,70.9,61.4,30.29,North,0,3.3,4.6,72,0.00,CLR,OVC,0.01,WeatherDisplay:10.37,2013-09-28 17:22:00,
2013-09-28 13:23:00,70.9,61.4,30.29,North,0,2.8,4.6,72,0.00,CLR,OVC,0.01,WeatherDisplay:10.37,2013-09-28 17:23:00,
2013-09-28 13:27:00,71.2,62.1,30.29,North,0,4.2,5.8,73,0.00,CLR,OVC,0.01,WeatherDisplay:10.37,2013-09-28 17:27:00,
2013-09-28 13:28:00,71.2,62.1,30.29,North,0,4.0,5.8,73,0.00,CLR,OVC,0.01,WeatherDisplay:10.37,2013-09-28 17:28:00,
2013-09-28 13:32:00,71.5,62.0,30.28,North,0,2.1,3.5,72,0.00,CLR,OVC,0.01,WeatherDisplay:10.37,2013-09-28 17:32:00,
2013-09-28 13:33:00,71.6,62.1,30.29,North,0,1.7,3.5,72,0.00,CLR,OVC,0.01,WeatherDisplay:10.37,2013-09-28 17:33:00,
2013-09-28 13:37:00,71.9,62.4,30.29,North,0,3.8,5.0,72,0.00,CLR,OVC,0.01,WeatherDisplay:10.37,2013-09-28 17:37:00,
2013-09-28 13:38:00,72.0,62.1,30.28,North,0,4.0,5.0,71,0.00,CLR,OVC,0.01,WeatherDisplay:10.37,2013-09-28 17:38:00,
2013-09-28 13:39:00,72.0,62.5,30.28,North,0,3.7,4.6,72,0.00,CLR,OVC,0.01,WeatherDisplay:10.37,2013-09-28 17:39:00,
2013-09-28 13:42:00,72.2,62.3,30.28,North,0,0.7,3.5,71,0.00,CLR,OVC,0.01,WeatherDisplay:10.37,2013-09-28 17:42:00,
2013-09-28 13:43:00,72.3,62.4,30.29,North,0,0.6,1.2,71,0.00,CLR,OVC,0.01,WeatherDisplay:10.37,2013-09-28 17:43:00,
2013-09-28 13:44:00,72.3,62.8,30.28,North,0,0.9,2.3,72,0.00,CLR,OVC,0.01,WeatherDisplay:10.37,2013-09-28 17:44:00,
2013-09-28 13:47:00,72.5,63.0,30.28,North,0,2.5,3.5,72,0.00,CLR,OVC,0.01,WeatherDisplay:10.37,2013-09-28 17:47:00,
2013-09-28 13:49:00,72.6,63.4,30.28,North,0,1.2,2.3,73,0.00,CLR,OVC,0.01,WeatherDisplay:10.37,2013-09-28 17:49:00,
2013-09-28 13:53:00,72.8,63.2,30.28,North,0,1.5,2.3,72,0.00,CLR,OVC,0.01,WeatherDisplay:10.37,2013-09-28 17:53:00,
2013-09-28 13:54:00,72.9,63.3,30.28,North,0,1.3,3.0,72,0.00,CLR,OVC,0.01,WeatherDisplay:10.37,2013-09-28 17:54:00,
2013-09-28 13:56:00,73.0,63.0,30.27,North,0,1.7,3.5,71,0.00,CLR,OVC,0.01,WeatherDisplay:10.37,2013-09-28 17:56:00,
2013-09-28 13:58:00,73.1,63.1,30.28,North,0,2.6,3.5,71,0.00,CLR,OVC,0.01,WeatherDisplay:10.37,2013-09-28 17:58:00,
2013-09-28 13:59:00,73.2,63.6,30.28,North,0,2.9,3.5,72,0.00,CLR,OVC,0.01,WeatherDisplay:10.37,2013-09-28 17:59:00,
2013-09-28 14:00:00,73.2,63.6,30.28,North,0,3.1,4.6,72,0.00,CLR,OVC,0.01,WeatherDisplay:10.37,2013-09-28 18:00:00,
2013-09-28 14:01:00,73.2,63.2,30.28,North,0,3.4,4.6,71,0.00,CLR,OVC,0.01,WeatherDisplay:10.37,2013-09-28 18:01:00,
2013-09-28 14:03:00,73.3,63.7,30.28,NNW,344,5.0,8.1,72,0.00,CLR,OVC,0.01,WeatherDisplay:10.37,2013-09-28 18:03:00,
2013-09-28 14:04:00,73.4,63.4,30.27,NNW,344,4.4,5.8,71,0.00,CLR,OVC,0.01,WeatherDisplay:10.37,2013-09-28 18:04:00,
2013-09-28 14:05:00,73.4,63.4,30.28,NNW,344,3.9,4.6,71,0.00,CLR,OVC,0.01,WeatherDisplay:10.37,2013-09-28 18:05:00,
2013-09-28 14:06:00,73.4,63.0,30.27,NNW,344,1.4,4.6,70,0.00,CLR,OVC,0.01,WeatherDisplay:10.37,2013-09-28 18:06:00,
2013-09-28 14:08:00,73.4,63.0,30.27,NNW,344,3.1,5.0,70,0.00,CLR,OVC,0.01,WeatherDisplay:10.37,2013-09-28 18:08:00,
2013-09-28 14:09:00,73.5,62.7,30.27,NNW,344,3.6,5.8,69,0.00,CLR,OVC,0.01,WeatherDisplay:10.37,2013-09-28 18:09:00,
2013-09-28 14:10:00,73.5,62.7,30.27,NNW,344,2.8,4.6,69,0.00,CLR,OVC,0.01,WeatherDisplay:10.37,2013-09-28 18:10:00,
2013-09-28 14:11:00,73.5,63.1,30.27,NNW,344,3.4,3.5,70,0.00,CLR,OVC,0.01,WeatherDisplay:10.37,2013-09-28 18:11:00,
2013-09-28 14:13:00,73.5,62.7,30.27,NNW,344,3.6,4.0,69,0.00,CLR,OVC,0.01,WeatherDisplay:10.37,2013-09-28 18:13:00,
2013-09-28 14:14:00,73.5,63.1,30.27,NNW,344,2.2,3.5,70,0.00,CLR,OVC,0.01,WeatherDisplay:10.37,2013-09-28 18:14:00,
2013-09-28 14:15:00,73.5,63.1,30.27,NNW,344,1.1,3.5,70,0.00,CLR,OVC,0.01,WeatherDisplay:10.37,2013-09-28 18:15:00,
2013-09-28 14:17:00,73.6,63.2,30.27,NNW,344,1.8,3.5,70,0.00,CLR,OVC,0.01,WeatherDisplay:10.37,2013-09-28 18:17:00,
2013-09-28 14:18:00,73.7,63.3,30.27,NNW,344,3.0,4.0,70,0.00,CLR,OVC,0.01,WeatherDisplay:10.37,2013-09-28 18:18:00,
2013-09-28 14:20:00,73.7,63.3,30.27,NNW,344,3.7,4.6,70,0.00,CLR,OVC,0.01,WeatherDisplay:10.37,2013-09-28 18:20:00,
2013-09-28 14:21:00,73.8,63.4,30.27,NNW,344,3.7,6.0,70,0.00,CLR,OVC,0.01,WeatherDisplay:10.37,2013-09-28 18:21:00,
2013-09-28 14:23:00,73.8,63.4,30.27,NNW,344,3.8,5.8,70,0.00,CLR,OVC,0.01,WeatherDisplay:10.37,2013-09-28 18:23:00,
2013-09-28 14:25:00,73.8,63.4,30.27,NNW,344,0.8,2.3,70,0.00,CLR,OVC,0.01,WeatherDisplay:10.37,2013-09-28 18:25:00,
2013-09-28 14:26:00,73.9,63.5,30.27,NNW,344,1.9,3.5,70,0.00,CLR,OVC,0.01,WeatherDisplay:10.37,2013-09-28 18:26:00,
2013-09-28 14:28:00,74.0,63.6,30.27,NNW,344,3.2,5.8,70,0.00,CLR,OVC,0.01,WeatherDisplay:10.37,2013-09-28 18:28:00,
2013-09-28 14:29:00,74.1,63.3,30.27,NNW,344,3.1,4.6,69,0.00,CLR,OVC,0.01,WeatherDisplay:10.37,2013-09-28 18:29:00,
2013-09-28 14:30:00,74.1,63.3,30.27,NNW,344,3.1,4.6,69,0.00,CLR,OVC,0.01,WeatherDisplay:10.37,2013-09-28 18:30:00,
2013-09-28 14:31:00,74.2,63.0,30.27,NNW,344,2.6,4.6,68,0.00,CLR,OVC,0.01,WeatherDisplay:10.37,2013-09-28 18:31:00,
2013-09-28 14:33:00,74.3,62.6,30.27,NNW,344,2.7,5.8,67,0.00,CLR,OVC,0.01,WeatherDisplay:10.37,2013-09-28 18:33:00,
2013-09-28 14:34:00,74.3,62.6,30.27,NNW,344,1.6,3.5,67,0.00,CLR,OVC,0.01,WeatherDisplay:10.37,2013-09-28 18:34:00,
2013-09-28 14:35:00,74.4,62.7,30.26,NNW,344,2.9,3.5,67,0.00,CLR,OVC,0.01,WeatherDisplay:10.37,2013-09-28 18:35:00,
2013-09-28 14:36:00,74.4,62.3,30.26,NNW,344,2.5,4.0,66,0.00,CLR,OVC,0.01,WeatherDisplay:10.37,2013-09-28 18:36:00,
2013-09-28 14:38:00,74.4,61.9,30.26,NNW,344,2.8,3.5,65,0.00,CLR,OVC,0.01,WeatherDisplay:10.37,2013-09-28 18:38:00,
2013-09-28 14:39:00,74.4,61.9,30.26,NNW,344,3.0,4.0,65,0.00,CLR,OVC,0.01,WeatherDisplay:10.37,2013-09-28 18:39:00,
2013-09-28 14:41:00,74.5,62.4,30.26,NNW,344,1.2,3.5,66,0.00,CLR,OVC,0.01,WeatherDisplay:10.37,2013-09-28 18:41:00,
2013-09-28 14:44:00,74.7,63.0,30.26,NNW,344,1.0,2.3,67,0.00,CLR,OVC,0.01,WeatherDisplay:10.37,2013-09-28 18:44:00,
2013-09-28 14:46:00,74.9,63.2,30.26,NNW,344,2.1,4.0,67,0.00,CLR,OVC,0.01,WeatherDisplay:10.37,2013-09-28 18:46:00,
2013-09-28 14:49:00,75.1,62.5,30.26,NNW,344,1.9,3.5,65,0.00,CLR,OVC,0.01,WeatherDisplay:10.37,2013-09-28 18:49:00,
2013-09-28 14:52:00,75.2,62.2,30.26,NNW,344,2.3,3.5,64,0.00,CLR,OVC,0.01,WeatherDisplay:10.37,2013-09-28 18:52:00,
2013-09-28 14:54:00,75.4,61.9,30.26,NNW,344,2.9,4.6,63,0.00,CLR,OVC,0.01,WeatherDisplay:10.37,2013-09-28 18:54:00,
2013-09-28 14:57:00,75.6,62.1,30.26,NNW,344,4.1,4.6,63,0.00,CLR,OVC,0.01,WeatherDisplay:10.37,2013-09-28 18:57:00,
2013-09-28 14:58:00,75.6,61.7,30.26,NNW,344,3.2,4.6,62,0.00,CLR,OVC,0.01,WeatherDisplay:10.37,2013-09-28 18:58:00,
2013-09-28 14:59:00,75.7,61.8,30.26,NNW,344,3.1,4.0,62,0.00,CLR,OVC,0.01,WeatherDisplay:10.37,2013-09-28 18:59:00,
2013-09-28 15:00:00,75.7,61.8,30.26,NNW,344,3.3,4.0,62,0.00,CLR,OVC,0.01,WeatherDisplay:10.37,2013-09-28 19:00:00,
2013-09-28 15:02:00,75.7,61.3,30.26,NNW,344,2.2,3.5,61,0.00,CLR,OVC,0.01,WeatherDisplay:10.37,2013-09-28 19:02:00,
2013-09-28 15:03:00,75.7,59.9,30.26,NNW,344,2.2,3.5,58,0.00,CLR,OVC,0.01,WeatherDisplay:10.37,2013-09-28 19:03:00,
2013-09-28 15:04:00,75.7,60.4,30.26,NNW,344,1.3,3.5,59,0.00,CLR,OVC,0.01,WeatherDisplay:10.37,2013-09-28 19:04:00,
2013-09-28 15:07:00,75.7,59.9,30.26,NNW,344,2.0,4.6,58,0.00,CLR,OVC,0.01,WeatherDisplay:10.37,2013-09-28 19:07:00,
2013-09-28 15:09:00,75.7,59.4,30.26,NNW,344,1.8,3.5,57,0.00,CLR,OVC,0.01,WeatherDisplay:10.37,2013-09-28 19:09:00,
2013-09-28 15:12:00,75.7,59.9,30.25,NNW,344,2.2,3.5,58,0.00,CLR,OVC,0.01,WeatherDisplay:10.37,2013-09-28 19:12:00,
2013-09-28 15:13:00,75.8,59.5,30.25,NNW,344,1.4,3.5,57,0.00,CLR,OVC,0.01,WeatherDisplay:10.37,2013-09-28 19:13:00,
2013-09-28 15:14:00,75.8,59.0,30.25,NNW,344,0.8,2.3,56,0.00,CLR,OVC,0.01,WeatherDisplay:10.37,2013-09-28 19:14:00,
2013-09-28 15:17:00,76.0,59.2,30.25,NNW,344,1.4,3.5,56,0.00,CLR,OVC,0.01,WeatherDisplay:10.37,2013-09-28 19:17:00,
2013-09-28 15:18:00,76.0,59.7,30.25,NNW,344,0.9,3.5,57,0.00,CLR,OVC,0.01,WeatherDisplay:10.37,2013-09-28 19:18:00,
2013-09-28 15:19:00,76.1,59.8,30.25,NNW,344,1.2,2.3,57,0.00,CLR,OVC,0.01,WeatherDisplay:10.37,2013-09-28 19:19:00,
2013-09-28 15:20:00,76.1,59.3,30.25,NNW,344,1.5,2.3,56,0.00,CLR,OVC,0.01,WeatherDisplay:10.37,2013-09-28 19:20:00,
2013-09-28 15:23:00,76.3,59.9,30.25,NNW,344,1.3,2.3,57,0.00,CLR,OVC,0.01,WeatherDisplay:10.37,2013-09-28 19:23:00,
2013-09-28 15:24:00,76.4,59.5,30.25,NNW,344,1.6,3.0,56,0.00,CLR,OVC,0.01,WeatherDisplay:10.37,2013-09-28 19:24:00,
2013-09-28 15:25:00,76.4,59.5,30.25,NNW,344,2.2,3.5,56,0.00,CLR,OVC,0.01,WeatherDisplay:10.37,2013-09-28 19:25:00,
2013-09-28 15:28:00,76.5,60.1,30.25,NNW,344,2.5,4.0,57,0.00,CLR,OVC,0.01,WeatherDisplay:10.37,2013-09-28 19:28:00,
2013-09-28 15:29:00,76.6,59.7,30.25,NNW,344,3.2,3.5,56,0.00,CLR,OVC,0.01,WeatherDisplay:10.37,2013-09-28 19:29:00,
2013-09-28 15:30:00,76.6,60.2,30.25,NNW,344,2.5,3.5,57,0.00,CLR,OVC,0.01,WeatherDisplay:10.37,2013-09-28 19:30:00,
2013-09-28 15:33:00,76.7,60.3,30.25,NNW,344,4.6,5.0,57,0.00,CLR,OVC,0.01,WeatherDisplay:10.37,2013-09-28 19:33:00,
2013-09-28 15:34:00,76.7,59.3,30.25,NNW,344,4.3,5.0,55,0.00,CLR,OVC,0.01,WeatherDisplay:10.37,2013-09-28 19:34:00,
2013-09-28 15:35:00,76.7,59.3,30.25,NNW,344,4.1,5.8,55,0.00,CLR,OVC,0.01,WeatherDisplay:10.37,2013-09-28 19:35:00,
2013-09-28 15:39:00,76.6,59.2,30.25,NNW,344,2.7,3.5,55,0.00,CLR,OVC,0.01,WeatherDisplay:10.37,2013-09-28 19:39:00,
2013-09-28 15:40:00,76.5,58.6,30.25,NNW,344,1.5,3.5,54,0.00,CLR,OVC,0.01,WeatherDisplay:10.37,2013-09-28 19:40:00,
2013-09-28 15:44:00,76.8,59.9,30.25,NNW,344,3.6,4.6,56,0.00,CLR,OVC,0.01,WeatherDisplay:10.37,2013-09-28 19:44:00,
2013-09-28 15:45:00,76.8,60.9,30.25,NNW,344,4.0,5.0,58,0.00,CLR,OVC,0.01,WeatherDisplay:10.37,2013-09-28 19:45:00,
2013-09-28 15:46:00,76.7,60.8,30.25,NNW,344,4.6,6.0,58,0.00,CLR,OVC,0.01,WeatherDisplay:10.37,2013-09-28 19:46:00,
2013-09-28 15:49:00,76.4,59.5,30.24,NNW,344,2.3,4.6,56,0.00,CLR,OVC,0.01,WeatherDisplay:10.37,2013-09-28 19:49:00,
2013-09-28 15:50:00,76.4,59.0,30.25,NNW,344,1.9,3.5,55,0.00,CLR,OVC,0.01,WeatherDisplay:10.37,2013-09-28 19:50:00,
2013-09-28 15:51:00,76.4,59.5,30.25,NNW,344,1.2,2.3,56,0.00,CLR,OVC,0.01,WeatherDisplay:10.37,2013-09-28 19:51:00,
2013-09-28 15:55:00,76.4,59.0,30.24,NNW,344,2.9,3.5,55,0.00,CLR,OVC,0.01,WeatherDisplay:10.37,2013-09-28 19:55:00,
2013-09-28 15:56:00,76.4,58.5,30.24,NNW,344,2.4,3.5,54,0.00,CLR,OVC,0.01,WeatherDisplay:10.37,2013-09-28 19:56:00,
2013-09-28 16:00:00,76.4,58.5,30.24,NNW,344,1.5,2.3,54,0.00,CLR,OVC,0.01,WeatherDisplay:10.37,2013-09-28 20:00:00,
2013-09-28 16:01:00,76.6,59.2,30.24,NNW,344,1.1,2.3,55,0.00,CLR,OVC,0.01,WeatherDisplay:10.37,2013-09-28 20:01:00,
2013-09-28 16:02:00,76.6,59.7,30.24,NNW,344,1.1,2.3,56,0.00,CLR,OVC,0.01,WeatherDisplay:10.37,2013-09-28 20:02:00,
2013-09-28 16:05:00,76.9,60.0,30.24,NNW,344,2.3,3.5,56,0.00,CLR,OVC,0.01,WeatherDisplay:10.37,2013-09-28 20:05:00,
2013-09-28 16:06:00,76.9,60.0,30.24,NNW,344,2.1,3.5,56,0.00,CLR,OVC,0.01,WeatherDisplay:10.37,2013-09-28 20:06:00,
2013-09-28 16:07:00,76.9,59.5,30.24,NNW,344,2.2,3.5,55,0.00,CLR,OVC,0.01,WeatherDisplay:10.37,2013-09-28 20:07:00,
2013-09-28 16:10:00,77.0,59.1,30.24,NNW,344,2.4,4.0,54,0.00,CLR,OVC,0.01,WeatherDisplay:10.37,2013-09-28 20:10:00,
2013-09-28 16:11:00,77.0,60.6,30.24,NNW,344,2.9,4.0,57,0.00,CLR,OVC,0.01,WeatherDisplay:10.37,2013-09-28 20:11:00,
2013-09-28 16:12:00,77.1,60.7,30.24,NNW,344,2.9,3.5,57,0.00,CLR,OVC,0.01,WeatherDisplay:10.37,2013-09-28 20:12:00,
2013-09-28 16:16:00,77.0,59.1,30.24,NNW,344,2.4,3.5,54,0.00,CLR,OVC,0.01,WeatherDisplay:10.37,2013-09-28 20:16:00,
2013-09-28 16:17:00,76.9,58.5,30.24,NNW,344,2.3,3.5,53,0.00,CLR,OVC,0.01,WeatherDisplay:10.37,2013-09-28 20:17:00,
2013-09-28 16:21:00,76.8,59.4,30.24,NNW,344,2.1,3.5,55,0.00,CLR,OVC,0.01,WeatherDisplay:10.37,2013-09-28 20:21:00,
2013-09-28 16:22:00,76.9,59.0,30.24,NNW,344,1.0,2.3,54,0.00,CLR,OVC,0.01,WeatherDisplay:10.37,2013-09-28 20:22:00,
2013-09-28 16:26:00,77.0,58.6,30.24,NNW,344,1.9,3.5,53,0.00,CLR,OVC,0.01,WeatherDisplay:10.37,2013-09-28 20:26:00,
2013-09-28 16:27:00,77.0,59.1,30.24,NNW,344,1.6,3.5,54,0.00,CLR,OVC,0.01,WeatherDisplay:10.37,2013-09-28 20:27:00,
2013-09-28 16:28:00,77.1,59.2,30.24,NNW,344,1.3,2.3,54,0.00,CLR,OVC,0.01,WeatherDisplay:10.37,2013-09-28 20:28:00,
2013-09-28 16:31:00,77.3,59.4,30.24,NNW,344,2.0,3.5,54,0.00,CLR,OVC,0.01,WeatherDisplay:10.37,2013-09-28 20:31:00,
2013-09-28 16:32:00,77.4,58.9,30.24,NNW,344,2.0,3.5,53,0.00,CLR,OVC,0.01,WeatherDisplay:10.37,2013-09-28 20:32:00,
2013-09-28 16:33:00,77.4,58.9,30.24,NNW,344,1.7,3.5,53,0.00,CLR,OVC,0.01,WeatherDisplay:10.37,2013-09-28 20:33:00,
2013-09-28 16:36:00,77.5,59.0,30.23,NNW,344,1.2,2.3,53,0.00,CLR,OVC,0.01,WeatherDisplay:10.37,2013-09-28 20:36:00,
2013-09-28 16:37:00,77.6,59.1,30.24,NNW,344,1.4,2.3,53,0.00,CLR,OVC,0.01,WeatherDisplay:10.37,2013-09-28 20:37:00,
2013-09-28 16:38:00,77.6,59.6,30.23,NNW,344,1.5,2.3,54,0.00,CLR,OVC,0.01,WeatherDisplay:10.37,2013-09-28 20:38:00,
2013-09-28 16:41:00,77.7,59.7,30.23,NNW,344,1.3,2.3,54,0.00,CLR,OVC,0.01,WeatherDisplay:10.37,2013-09-28 20:41:00,
2013-09-28 16:42:00,77.7,59.2,30.23,NNW,344,1.1,2.3,53,0.00,CLR,OVC,0.01,WeatherDisplay:10.37,2013-09-28 20:42:00,
2013-09-28 16:43:00,77.7,59.2,30.23,NNW,344,0.8,2.3,53,0.00,CLR,OVC,0.01,WeatherDisplay:10.37,2013-09-28 20:43:00,
2013-09-28 16:47:00,77.9,59.4,30.23,NNW,344,0.6,1.2,53,0.00,CLR,OVC,0.01,WeatherDisplay:10.37,2013-09-28 20:47:00,
2013-09-28 16:48:00,78.0,60.0,30.23,NNW,344,1.0,2.3,54,0.00,CLR,OVC,0.01,WeatherDisplay:10.37,2013-09-28 20:48:00,
2013-09-28 16:49:00,78.0,59.5,30.23,NNW,344,1.6,2.3,53,0.00,CLR,OVC,0.01,WeatherDisplay:10.37,2013-09-28 20:49:00,
2013-09-28 16:52:00,78.2,60.2,30.23,NNW,344,1.5,2.3,54,0.00,CLR,OVC,0.01,WeatherDisplay:10.37,2013-09-28 20:52:00,
2013-09-28 16:53:00,78.2,60.7,30.23,NNW,344,1.3,2.3,55,0.00,CLR,OVC,0.01,WeatherDisplay:10.37,2013-09-28 20:53:00,
2013-09-28 16:55:00,78.2,60.7,30.23,NNW,344,1.2,2.3,55,0.00,CLR,OVC,0.01,WeatherDisplay:10.37,2013-09-28 20:55:00,
2013-09-28 16:57:00,78.1,61.1,30.23,NNW,344,1.1,2.3,56,0.00,CLR,OVC,0.01,WeatherDisplay:10.37,2013-09-28 20:57:00,
2013-09-28 16:58:00,78.1,60.6,30.23,NNW,344,1.2,2.3,55,0.00,CLR,OVC,0.01,WeatherDisplay:10.37,2013-09-28 20:58:00,
2013-09-28 17:01:00,77.8,60.3,30.23,NNW,344,0.2,1.2,55,0.00,CLR,OVC,0.01,WeatherDisplay:10.37,2013-09-28 21:01:00,
2013-09-28 17:02:00,77.8,60.8,30.24,NNW,344,0.0,1.2,56,0.00,CLR,OVC,0.01,WeatherDisplay:10.37,2013-09-28 21:02:00,
2013-09-28 17:03:00,77.8,60.8,30.23,NNW,344,0.0,0.0,56,0.00,CLR,OVC,0.01,WeatherDisplay:10.37,2013-09-28 21:03:00,
2013-09-28 17:06:00,77.8,60.8,30.23,NNW,344,0.0,0.0,56,0.00,CLR,OVC,0.01,WeatherDisplay:10.37,2013-09-28 21:06:00,
2013-09-28 17:07:00,77.7,61.3,30.23,NNW,344,0.0,0.0,57,0.00,CLR,OVC,0.01,WeatherDisplay:10.37,2013-09-28 21:07:00,
2013-09-28 17:08:00,77.7,61.3,30.23,NNW,344,0.0,0.0,57,0.00,CLR,OVC,0.01,WeatherDisplay:10.37,2013-09-28 21:08:00,
2013-09-28 17:11:00,77.6,60.7,30.23,NNW,344,0.0,0.0,56,0.00,CLR,OVC,0.01,WeatherDisplay:10.37,2013-09-28 21:11:00,
2013-09-28 17:12:00,77.6,60.7,30.23,NNW,344,0.9,2.0,56,0.00,CLR,OVC,0.01,WeatherDisplay:10.37,2013-09-28 21:12:00,
2013-09-28 17:13:00,77.6,60.2,30.23,NNW,344,1.6,2.3,55,0.00,CLR,OVC,0.01,WeatherDisplay:10.37,2013-09-28 21:13:00,
2013-09-28 17:17:00,77.7,60.2,30.23,NNW,344,0.9,2.3,55,0.00,CLR,OVC,0.01,WeatherDisplay:10.37,2013-09-28 21:17:00,
2013-09-28 17:18:00,77.7,60.8,30.23,NNW,344,0.8,2.3,56,0.00,CLR,OVC,0.01,WeatherDisplay:10.37,2013-09-28 21:18:00,
2013-09-28 17:19:00,77.7,60.8,30.23,NNW,344,0.8,2.3,56,0.00,CLR,OVC,0.01,WeatherDisplay:10.37,2013-09-28 21:19:00,
2013-09-28 17:22:00,77.9,61.4,30.23,NNW,344,0.0,1.2,57,0.00,CLR,OVC,0.01,WeatherDisplay:10.37,2013-09-28 21:22:00,
2013-09-28 17:24:00,78.0,63.0,30.23,NNW,344,0.3,1.2,60,0.00,CLR,OVC,0.01,WeatherDisplay:10.37,2013-09-28 21:24:00,
2013-09-28 17:26:00,77.9,63.4,30.23,NNW,344,0.6,1.2,61,0.00,CLR,OVC,0.01,WeatherDisplay:10.37,2013-09-28 21:26:00,
2013-09-28 17:27:00,77.7,63.6,30.23,NNW,344,0.6,2.3,62,0.00,CLR,OVC,0.01,WeatherDisplay:10.37,2013-09-28 21:27:00,
2013-09-28 17:29:00,77.5,63.9,30.23,NNW,344,0.0,0.0,63,0.00,CLR,OVC,0.01,WeatherDisplay:10.37,2013-09-28 21:29:00,
2013-09-28 17:31:00,77.2,63.2,30.23,NNW,344,0.6,1.2,62,0.00,CLR,OVC,0.01,WeatherDisplay:10.37,2013-09-28 21:31:00,
2013-09-28 17:32:00,77.1,63.5,30.23,NNW,344,0.6,1.2,63,0.00,CLR,OVC,0.01,WeatherDisplay:10.37,2013-09-28 21:32:00,
2013-09-28 17:33:00,77.0,63.4,30.23,NNW,344,0.4,1.2,63,0.00,CLR,OVC,0.01,WeatherDisplay:10.37,2013-09-28 21:33:00,
2013-09-28 17:34:00,76.8,63.2,30.23,NNW,344,0.0,1.2,63,0.00,CLR,OVC,0.01,WeatherDisplay:10.37,2013-09-28 21:34:00,
2013-09-28 17:36:00,76.4,63.3,30.23,NNW,344,0.8,1.2,64,0.00,CLR,OVC,0.01,WeatherDisplay:10.37,2013-09-28 21:36:00,
2013-09-28 17:37:00,76.3,63.7,30.23,NNW,344,0.4,1.2,65,0.00,CLR,OVC,0.01,WeatherDisplay:10.37,2013-09-28 21:37:00,
2013-09-28 17:38:00,76.3,63.7,30.23,NNW,344,0.3,1.2,65,0.00,CLR,OVC,0.01,WeatherDisplay:10.37,2013-09-28 21:38:00,
2013-09-28 17:39:00,76.3,64.1,30.23,NNW,344,0.9,2.3,66,0.00,CLR,OVC,0.01,WeatherDisplay:10.37,2013-09-28 21:39:00,
2013-09-28 17:41:00,76.3,64.1,30.23,NNW,344,0.3,2.3,66,0.00,CLR,OVC,0.01,WeatherDisplay:10.37,2013-09-28 21:41:00,
2013-09-28 17:42:00,76.3,64.1,30.23,NNW,344,0.8,1.2,66,0.00,CLR,OVC,0.01,WeatherDisplay:10.37,2013-09-28 21:42:00,
2013-09-28 17:43:00,76.3,64.1,30.23,NNW,344,0.7,1.2,66,0.00,CLR,OVC,0.01,WeatherDisplay:10.37,2013-09-28 21:43:00,
2013-09-28 17:44:00,76.4,64.2,30.23,NNW,344,0.0,1.2,66,0.00,CLR,OVC,0.01,WeatherDisplay:10.37,2013-09-28 21:44:00,
2013-09-28 17:46:00,76.4,63.8,30.23,NNW,344,0.0,0.0,65,0.00,CLR,OVC,0.01,WeatherDisplay:10.37,2013-09-28 21:46:00,
2013-09-28 17:47:00,76.5,63.9,30.23,NNW,344,0.0,0.0,65,0.00,CLR,OVC,0.01,WeatherDisplay:10.37,2013-09-28 21:47:00,
2013-09-28 17:48:00,76.5,63.4,30.23,NNW,344,0.0,0.0,64,0.00,CLR,OVC,0.01,WeatherDisplay:10.37,2013-09-28 21:48:00,
2013-09-28 17:49:00,76.5,63.9,30.23,NNW,344,0.0,0.0,65,0.00,CLR,OVC,0.01,WeatherDisplay:10.37,2013-09-28 21:49:00,
2013-09-28 17:52:00,76.5,63.9,30.24,NNW,344,0.0,0.0,65,0.00,CLR,OVC,0.01,WeatherDisplay:10.37,2013-09-28 21:52:00,
2013-09-28 17:53:00,76.4,63.8,30.23,NNW,344,0.4,1.2,65,0.00,CLR,OVC,0.01,WeatherDisplay:10.37,2013-09-28 21:53:00,
2013-09-28 17:55:00,76.4,63.8,30.23,NNW,344,0.4,1.2,65,0.00,CLR,OVC,0.01,WeatherDisplay:10.37,2013-09-28 21:55:00,
2013-09-28 17:57:00,76.4,64.2,30.23,NNW,344,0.9,1.2,66,0.00,CLR,OVC,0.01,WeatherDisplay:10.37,2013-09-28 21:57:00,
2013-09-28 17:58:00,76.5,64.3,30.23,NNW,344,0.8,1.2,66,0.00,CLR,OVC,0.01,WeatherDisplay:10.37,2013-09-28 21:58:00,
2013-09-28 18:00:00,76.5,63.9,30.23,NNW,344,1.1,2.3,65,0.00,CLR,OVC,0.01,WeatherDisplay:10.37,2013-09-28 22:00:00,
2013-09-28 18:02:00,76.5,63.9,30.23,NNW,344,0.9,1.2,65,0.00,CLR,OVC,0.01,WeatherDisplay:10.37,2013-09-28 22:02:00,
2013-09-28 18:03:00,76.5,63.9,30.24,NNW,344,1.1,2.3,65,0.00,CLR,OVC,0.01,WeatherDisplay:10.37,2013-09-28 22:03:00,
2013-09-28 18:05:00,76.5,63.9,30.24,NNW,344,1.4,2.3,65,0.00,CLR,OVC,0.01,WeatherDisplay:10.37,2013-09-28 22:05:00,
2013-09-28 18:07:00,76.4,63.8,30.24,NNW,344,1.6,2.3,65,0.00,CLR,OVC,0.01,WeatherDisplay:10.37,2013-09-28 22:07:00,
2013-09-28 18:08:00,76.4,63.8,30.24,NNW,344,1.7,2.3,65,0.00,CLR,OVC,0.01,WeatherDisplay:10.37,2013-09-28 22:08:00,
2013-09-28 18:09:00,76.4,63.8,30.24,NNW,344,2.0,3.0,65,0.00,CLR,OVC,0.01,WeatherDisplay:10.37,2013-09-28 22:09:00,
2013-09-28 18:10:00,76.2,64.0,30.23,NNW,344,2.0,3.5,66,0.00,CLR,OVC,0.01,WeatherDisplay:10.37,2013-09-28 22:10:00,
2013-09-28 18:12:00,76.1,63.9,30.24,NNW,344,2.4,3.5,66,0.00,CLR,OVC,0.01,WeatherDisplay:10.37,2013-09-28 22:12:00,
2013-09-28 18:13:00,75.9,64.2,30.24,NNW,344,2.6,3.5,67,0.00,CLR,OVC,0.01,WeatherDisplay:10.37,2013-09-28 22:13:00,
2013-09-28 18:14:00,75.9,64.2,30.24,NNW,344,2.6,3.5,67,0.00,CLR,OVC,0.01,WeatherDisplay:10.37,2013-09-28 22:14:00,
2013-09-28 18:15:00,75.5,63.8,30.23,NNW,344,2.9,3.5,67,0.00,CLR,OVC,0.01,WeatherDisplay:10.37,2013-09-28 22:15:00,
2013-09-28 18:17:00,75.2,63.9,30.24,NNW,344,2.8,3.5,68,0.00,CLR,OVC,0.01,WeatherDisplay:10.37,2013-09-28 22:17:00,
2013-09-28 18:18:00,74.9,63.6,30.23,NNW,344,3.0,3.5,68,0.00,CLR,OVC,0.01,WeatherDisplay:10.37,2013-09-28 22:18:00,
2013-09-28 18:20:00,74.7,63.9,30.24,NNW,344,3.0,3.5,69,0.00,CLR,OVC,0.01,WeatherDisplay:10.37,2013-09-28 22:20:00,
2013-09-28 18:22:00,74.2,63.4,30.24,NNW,344,3.2,4.0,69,0.00,CLR,OVC,0.01,WeatherDisplay:10.37,2013-09-28 22:22:00,
2013-09-28 18:23:00,74.0,63.2,30.24,NNW,344,3.4,4.0,69,0.00,CLR,OVC,0.01,WeatherDisplay:10.37,2013-09-28 22:23:00,
2013-09-28 18:25:00,73.7,63.3,30.24,NNW,344,2.9,3.5,70,0.00,CLR,OVC,0.01,WeatherDisplay:10.37,2013-09-28 22:25:00,
2013-09-28 18:27:00,73.1,62.7,30.24,NNW,344,3.5,4.0,70,0.00,CLR,OVC,0.01,WeatherDisplay:10.37,2013-09-28 22:27:00,
2013-09-28 18:28:00,72.8,62.8,30.23,NNW,344,3.3,4.0,71,0.00,CLR,OVC,0.01,WeatherDisplay:10.37,2013-09-28 22:28:00,
2013-09-28 18:30:00,72.5,62.6,30.24,NNW,344,3.5,4.0,71,0.00,CLR,OVC,0.01,WeatherDisplay:10.37,2013-09-28 22:30:00,
2013-09-28 18:33:00,71.7,62.6,30.23,NNW,344,3.8,4.0,73,0.00,CLR,OVC,0.01,WeatherDisplay:10.37,2013-09-28 22:33:00,
2013-09-28 18:35:00,71.0,61.9,30.23,NNW,344,3.3,4.0,73,0.00,CLR,OVC,0.01,WeatherDisplay:10.37,2013-09-28 22:35:00,
2013-09-28 18:36:00,70.8,60.5,30.23,NNW,344,3.3,4.0,70,0.00,CLR,OVC,0.01,WeatherDisplay:10.37,2013-09-28 22:36:00,
2013-09-28 18:38:00,70.0,60.9,30.23,NNW,344,4.2,4.6,73,0.00,CLR,OVC,0.01,WeatherDisplay:10.37,2013-09-28 22:38:00,
2013-09-28 18:40:00,69.5,61.2,30.23,NNW,344,4.6,5.0,75,0.00,CLR,OVC,0.01,WeatherDisplay:10.37,2013-09-28 22:40:00,
2013-09-28 18:41:00,69.3,61.0,30.23,NNW,344,4.6,4.6,75,0.00,CLR,OVC,0.01,WeatherDisplay:10.37,2013-09-28 22:41:00,
2013-09-28 18:43:00,68.4,60.9,30.23,NNW,344,3.2,4.6,77,0.00,CLR,OVC,0.01,WeatherDisplay:10.37,2013-09-28 22:43:00,
2013-09-28 18:44:00,68.4,60.9,30.23,NNW,344,3.1,3.5,77,0.00,CLR,OVC,0.01,WeatherDisplay:10.37,2013-09-28 22:44:00,
2013-09-28 18:45:00,68.1,60.2,30.23,NNW,344,2.9,3.5,76,0.00,CLR,OVC,0.01,WeatherDisplay:10.37,2013-09-28 22:45:00,
2013-09-28 18:46:00,67.9,60.4,30.23,NNW,344,2.9,4.0,77,0.00,CLR,OVC,0.01,WeatherDisplay:10.37,2013-09-28 22:46:00,
2013-09-28 18:49:00,67.3,59.8,30.23,NNW,344,1.8,3.5,77,0.00,CLR,OVC,0.01,WeatherDisplay:10.37,2013-09-28 22:49:00,
2013-09-28 18:50:00,66.9,59.8,30.23,NNW,344,2.0,3.5,78,0.00,CLR,OVC,0.01,WeatherDisplay:10.37,2013-09-28 22:50:00,
2013-09-28 18:51:00,66.9,59.8,30.23,NNW,344,1.9,3.5,78,0.00,CLR,OVC,0.01,WeatherDisplay:10.37,2013-09-28 22:51:00,
2013-09-28 18:54:00,66.3,59.6,30.23,NNW,344,2.2,3.5,79,0.00,CLR,OVC,0.01,WeatherDisplay:10.37,2013-09-28 22:54:00,
2013-09-28 18:56:00,66.0,59.3,30.23,NNW,344,2.9,3.5,79,0.00,CLR,OVC,0.01,WeatherDisplay:10.37,2013-09-28 22:56:00,
2013-09-28 18:59:00,65.4,59.1,30.23,NNW,344,3.6,4.0,80,0.00,CLR,OVC,0.01,WeatherDisplay:10.37,2013-09-28 22:59:00,
2013-09-28 19:01:00,65.1,58.8,30.23,NNW,344,4.1,5.0,80,0.00,CLR,OVC,0.01,WeatherDisplay:10.37,2013-09-28 23:01:00,
2013-09-28 19:04:00,64.5,58.5,30.23,NNW,344,2.6,3.5,81,0.00,CLR,OVC,0.01,WeatherDisplay:10.37,2013-09-28 23:04:00,
2013-09-28 19:06:00,64.3,58.7,30.23,NNW,344,3.2,3.5,82,0.00,CLR,OVC,0.01,WeatherDisplay:10.37,2013-09-28 23:06:00,
2013-09-28 19:09:00,63.7,58.4,30.22,NNW,344,1.8,3.5,83,0.00,CLR,OVC,0.01,WeatherDisplay:10.37,2013-09-28 23:09:00,
2013-09-28 19:10:00,63.7,58.4,30.22,NNW,344,1.8,3.5,83,0.00,CLR,OVC,0.01,WeatherDisplay:10.37,2013-09-28 23:10:00,
2013-09-28 19:11:00,63.5,58.2,30.23,NNW,344,1.6,3.5,83,0.00,CLR,OVC,0.01,WeatherDisplay:10.37,2013-09-28 23:11:00,
2013-09-28 19:14:00,63.2,58.3,30.22,NNW,344,2.5,3.5,84,0.00,CLR,OVC,0.01,WeatherDisplay:10.37,2013-09-28 23:14:00,
2013-09-28 19:15:00,63.2,58.3,30.22,NNW,344,2.5,3.5,84,0.00,CLR,OVC,0.01,WeatherDisplay:10.37,2013-09-28 23:15:00,
2013-09-28 19:16:00,63.0,58.1,30.23,NNW,344,1.4,3.5,84,0.00,CLR,OVC,0.01,WeatherDisplay:10.37,2013-09-28 23:16:00,
2013-09-28 19:17:00,62.9,58.0,30.23,NNW,344,1.7,3.5,84,0.00,CLR,OVC,0.01,WeatherDisplay:10.37,2013-09-28 23:17:00,
2013-09-28 19:20:00,62.6,58.0,30.23,NNW,344,2.6,3.5,85,0.00,CLR,OVC,0.01,WeatherDisplay:10.37,2013-09-28 23:20:00,
2013-09-28 19:22:00,62.3,57.7,30.23,NNW,344,2.5,3.5,85,0.00,CLR,OVC,0.01,WeatherDisplay:10.37,2013-09-28 23:22:00,
2013-09-28 19:25:00,62.0,57.8,30.23,NNW,344,0.4,3.5,86,0.00,CLR,OVC,0.01,WeatherDisplay:10.37,2013-09-28 23:25:00,
2013-09-28 19:27:00,61.9,57.7,30.23,NNW,344,0.7,2.3,86,0.00,CLR,OVC,0.01,WeatherDisplay:10.37,2013-09-28 23:27:00,
2013-09-28 19:30:00,61.6,57.7,30.23,NNW,344,2.6,4.0,87,0.00,CLR,OVC,0.01,WeatherDisplay:10.37,2013-09-28 23:30:00,
2013-09-28 19:32:00,61.5,57.6,30.22,NNW,344,3.1,3.5,87,0.00,CLR,OVC,0.01,WeatherDisplay:10.37,2013-09-28 23:32:00,
2013-09-28 19:35:00,61.4,57.8,30.22,NNW,344,2.8,3.5,88,0.00,CLR,OVC,0.01,WeatherDisplay:10.37,2013-09-28 23:35:00,
2013-09-28 19:37:00,61.4,57.8,30.22,NNW,344,2.1,3.5,88,0.00,CLR,OVC,0.01,WeatherDisplay:10.37,2013-09-28 23:37:00,
2013-09-28 19:40:00,61.3,57.7,30.22,NNW,344,2.3,3.5,88,0.00,CLR,OVC,0.01,WeatherDisplay:10.37,2013-09-28 23:40:00,
2013-09-28 19:42:00,61.2,57.6,30.22,NNW,344,2.0,3.5,88,0.00,CLR,OVC,0.01,WeatherDisplay:10.37,2013-09-28 23:42:00,
2013-09-28 19:43:00,61.1,57.5,30.22,NNW,344,2.0,3.5,88,0.00,CLR,OVC,0.01,WeatherDisplay:10.37,2013-09-28 23:43:00,
2013-09-28 19:45:00,61.0,57.4,30.22,NNW,344,1.8,2.3,88,0.00,CLR,OVC,0.01,WeatherDisplay:10.37,2013-09-28 23:45:00,
2013-09-28 19:47:00,60.9,57.3,30.22,NNW,344,1.5,2.3,88,0.00,CLR,OVC,0.01,WeatherDisplay:10.37,2013-09-28 23:47:00,
2013-09-28 19:48:00,60.8,57.2,30.22,NNW,344,0.8,3.5,88,0.00,CLR,OVC,0.01,WeatherDisplay:10.37,2013-09-28 23:48:00,
2013-09-28 19:50:00,60.7,57.1,30.22,NNW,344,0.9,2.3,88,0.00,CLR,OVC,0.01,WeatherDisplay:10.37,2013-09-28 23:50:00,
2013-09-28 19:51:00,60.7,57.1,30.22,NNW,344,0.9,2.3,88,0.00,CLR,OVC,0.01,WeatherDisplay:10.37,2013-09-28 23:51:00,
2013-09-28 19:52:00,60.7,57.4,30.22,NNW,344,0.2,1.2,89,0.00,CLR,OVC,0.01,WeatherDisplay:10.37,2013-09-28 23:52:00,
2013-09-28 19:54:00,60.6,57.3,30.22,NNW,344,0.0,0.0,89,0.00,CLR,OVC,0.01,WeatherDisplay:10.37,2013-09-28 23:54:00,
2013-09-28 19:56:00,60.5,57.2,30.22,NNW,344,0.0,0.0,89,0.00,CLR,OVC,0.01,WeatherDisplay:10.37,2013-09-28 23:56:00,
2013-09-28 19:57:00,60.4,57.1,30.22,NNW,344,0.0,0.0,89,0.00,CLR,OVC,0.01,WeatherDisplay:10.37,2013-09-28 23:57:00,
2013-09-28 19:59:00,60.3,57.0,30.22,NNW,344,0.0,0.0,89,0.00,CLR,OVC,0.01,WeatherDisplay:10.37,2013-09-28 23:59:00,
2013-09-28 20:01:00,60.2,56.9,30.22,NNW,344,0.0,0.0,89,0.00,CLR,OVC,0.01,WeatherDisplay:10.37,2013-09-29 00:01:00,
2013-09-28 20:02:00,60.2,56.9,30.22,NNW,344,0.0,0.0,89,0.00,CLR,OVC,0.01,WeatherDisplay:10.37,2013-09-29 00:02:00,
2013-09-28 20:03:00,60.1,56.8,30.22,NNW,344,0.0,0.0,89,0.00,CLR,OVC,0.01,WeatherDisplay:10.37,2013-09-29 00:03:00,
2013-09-28 20:04:00,60.0,56.7,30.22,NNW,344,0.0,0.0,89,0.00,CLR,OVC,0.01,WeatherDisplay:10.37,2013-09-29 00:04:00,
2013-09-28 20:07:00,59.9,56.6,30.22,NNW,344,0.9,2.3,89,0.00,CLR,OVC,0.01,WeatherDisplay:10.37,2013-09-29 00:07:00,
2013-09-28 20:08:00,59.8,56.9,30.22,NNW,344,2.1,3.5,90,0.00,CLR,OVC,0.01,WeatherDisplay:10.37,2013-09-29 00:08:00,
2013-09-28 20:09:00,59.7,56.8,30.22,NNW,344,1.7,3.5,90,0.00,CLR,OVC,0.01,WeatherDisplay:10.37,2013-09-29 00:09:00,
2013-09-28 20:12:00,59.6,56.7,30.22,NNW,344,0.0,0.0,90,0.00,CLR,OVC,0.01,WeatherDisplay:10.37,2013-09-29 00:12:00,
2013-09-28 20:13:00,59.6,56.7,30.22,NNW,344,0.0,0.0,90,0.00,CLR,OVC,0.01,WeatherDisplay:10.37,2013-09-29 00:13:00,
2013-09-28 20:14:00,59.5,56.6,30.22,NNW,344,0.0,0.0,90,0.00,CLR,OVC,0.01,WeatherDisplay:10.37,2013-09-29 00:14:00,
2013-09-28 20:17:00,59.4,56.8,30.22,NNW,344,0.7,1.2,91,0.00,CLR,OVC,0.01,WeatherDisplay:10.37,2013-09-29 00:17:00,
2013-09-28 20:18:00,59.4,56.8,30.22,NNW,344,0.9,2.0,91,0.00,CLR,OVC,0.01,WeatherDisplay:10.37,2013-09-29 00:18:00,
2013-09-28 20:19:00,59.4,56.8,30.22,NNW,344,2.0,3.5,91,0.00,CLR,OVC,0.01,WeatherDisplay:10.37,2013-09-29 00:19:00,
2013-09-28 20:20:00,59.4,56.8,30.23,NNW,344,2.0,3.5,91,0.00,CLR,OVC,0.01,WeatherDisplay:10.37,2013-09-29 00:20:00,
2013-09-28 20:22:00,59.4,56.8,30.22,NNW,344,1.8,3.5,91,0.00,CLR,OVC,0.01,WeatherDisplay:10.37,2013-09-29 00:22:00,
2013-09-28 20:23:00,59.4,56.8,30.22,NNW,344,1.3,2.3,91,0.00,CLR,OVC,0.01,WeatherDisplay:10.37,2013-09-29 00:23:00,
2013-09-28 20:24:00,59.4,57.1,30.23,NNW,344,0.4,2.3,92,0.00,CLR,OVC,0.01,WeatherDisplay:10.37,2013-09-29 00:24:00,
2013-09-28 20:25:00,59.4,56.8,30.22,NNW,344,0.0,0.0,91,0.00,CLR,OVC,0.01,WeatherDisplay:10.37,2013-09-29 00:25:00,
2013-09-28 20:28:00,59.3,56.7,30.22,NNW,344,0.0,0.0,91,0.00,CLR,OVC,0.01,WeatherDisplay:10.37,2013-09-29 00:28:00,
2013-09-28 20:29:00,59.3,57.0,30.22,NNW,344,0.0,0.0,92,0.00,CLR,OVC,0.01,WeatherDisplay:10.37,2013-09-29 00:29:00,
2013-09-28 20:30:00,59.3,57.0,30.22,NNW,344,0.0,0.0,92,0.00,CLR,OVC,0.01,WeatherDisplay:10.37,2013-09-29 00:30:00,
2013-09-28 20:33:00,59.2,56.9,30.22,NNW,344,0.3,1.2,92,0.00,CLR,OVC,0.01,WeatherDisplay:10.37,2013-09-29 00:33:00,
2013-09-28 20:34:00,59.1,56.5,30.22,NNW,344,0.0,0.0,91,0.00,CLR,OVC,0.01,WeatherDisplay:10.37,2013-09-29 00:34:00,
2013-09-28 20:35:00,59.1,56.8,30.22,NNW,344,0.0,0.0,92,0.00,CLR,OVC,0.01,WeatherDisplay:10.37,2013-09-29 00:35:00,
2013-09-28 20:38:00,58.9,56.3,30.22,NNW,344,0.0,0.0,91,0.00,CLR,OVC,0.01,WeatherDisplay:10.37,2013-09-29 00:38:00,
2013-09-28 20:39:00,58.8,56.5,30.22,NNW,344,1.6,3.5,92,0.00,CLR,OVC,0.01,WeatherDisplay:10.37,2013-09-29 00:39:00,
2013-09-28 20:40:00,58.8,56.5,30.22,NNW,344,2.5,3.5,92,0.00,CLR,OVC,0.01,WeatherDisplay:10.37,2013-09-29 00:40:00,
2013-09-28 20:43:00,58.6,56.3,30.23,NNW,344,2.1,3.5,92,0.00,CLR,OVC,0.01,WeatherDisplay:10.37,2013-09-29 00:43:00,
2013-09-28 20:44:00,58.6,56.3,30.22,NNW,344,2.5,3.5,92,0.00,CLR,OVC,0.01,WeatherDisplay:10.37,2013-09-29 00:44:00,
2013-09-28 20:45:00,58.6,56.6,30.23,NNW,344,2.8,3.5,93,0.00,CLR,OVC,0.01,WeatherDisplay:10.37,2013-09-29 00:45:00,
2013-09-28 20:49:00,58.6,56.6,30.22,NNW,344,2.9,3.5,93,0.00,CLR,OVC,0.01,WeatherDisplay:10.37,2013-09-29 00:49:00,
2013-09-28 20:50:00,58.6,56.6,30.23,NNW,344,3.1,4.0,93,0.00,CLR,OVC,0.01,WeatherDisplay:10.37,2013-09-29 00:50:00,
2013-09-28 20:51:00,58.6,56.6,30.22,NNW,344,3.1,3.5,93,0.00,CLR,OVC,0.01,WeatherDisplay:10.37,2013-09-29 00:51:00,
2013-09-28 20:54:00,58.7,57.0,30.22,NNW,344,2.8,3.5,94,0.00,CLR,OVC,0.01,WeatherDisplay:10.37,2013-09-29 00:54:00,
2013-09-28 20:56:00,58.8,56.8,30.22,NNW,344,2.5,3.5,93,0.00,CLR,OVC,0.01,WeatherDisplay:10.37,2013-09-29 00:56:00,
2013-09-28 20:59:00,58.8,57.1,30.23,NNW,344,3.1,3.5,94,0.00,CLR,OVC,0.01,WeatherDisplay:10.37,2013-09-29 00:59:00,
2013-09-28 21:01:00,58.8,56.8,30.23,NNW,344,3.3,4.0,93,0.00,CLR,OVC,0.01,WeatherDisplay:10.37,2013-09-29 01:01:00,
2013-09-28 21:04:00,58.7,56.7,30.22,NNW,344,3.4,3.5,93,0.00,CLR,OVC,0.01,WeatherDisplay:10.37,2013-09-29 01:04:00,
2013-09-28 21:06:00,58.7,57.0,30.22,NNW,344,3.2,4.0,94,0.00,CLR,OVC,0.01,WeatherDisplay:10.37,2013-09-29 01:06:00,
2013-09-28 21:09:00,58.7,56.7,30.22,NNW,344,3.1,3.5,93,0.00,CLR,OVC,0.01,WeatherDisplay:10.37,2013-09-29 01:09:00,
2013-09-28 21:10:00,58.7,56.7,30.22,NNW,344,3.0,4.0,93,0.00,CLR,OVC,0.01,WeatherDisplay:10.37,2013-09-29 01:10:00,
2013-09-28 21:11:00,58.6,56.9,30.22,NNW,344,2.6,3.5,94,0.00,CLR,OVC,0.01,WeatherDisplay:10.37,2013-09-29 01:11:00,
2013-09-28 21:15:00,58.6,56.6,30.22,NNW,344,1.3,2.3,93,0.00,CLR,OVC,0.01,WeatherDisplay:10.37,2013-09-29 01:15:00,
2013-09-28 21:16:00,58.5,56.5,30.22,NNW,344,3.2,3.5,93,0.00,CLR,OVC,0.01,WeatherDisplay:10.37,2013-09-29 01:16:00,
2013-09-28 21:20:00,58.2,55.9,30.22,NNW,344,0.4,1.2,92,0.00,CLR,OVC,0.01,WeatherDisplay:10.37,2013-09-29 01:20:00,
2013-09-28 21:21:00,58.0,56.0,30.22,NNW,344,1.6,2.3,93,0.00,CLR,OVC,0.01,WeatherDisplay:10.37,2013-09-29 01:21:00,
2013-09-28 21:25:00,57.6,55.6,30.22,NNW,344,0.8,1.2,93,0.00,CLR,OVC,0.01,WeatherDisplay:10.37,2013-09-29 01:25:00,
2013-09-28 21:26:00,57.4,55.4,30.22,NNW,344,0.5,2.3,93,0.00,CLR,OVC,0.01,WeatherDisplay:10.37,2013-09-29 01:26:00,
2013-09-28 21:30:00,57.0,55.0,30.22,NNW,344,1.9,3.5,93,0.00,CLR,OVC,0.01,WeatherDisplay:10.37,2013-09-29 01:30:00,
2013-09-28 21:31:00,56.9,54.9,30.22,NNW,344,0.0,3.5,93,0.00,CLR,OVC,0.01,WeatherDisplay:10.37,2013-09-29 01:31:00,
2013-09-28 21:35:00,56.6,54.9,30.22,NNW,344,1.8,3.5,94,0.00,CLR,OVC,0.01,WeatherDisplay:10.37,2013-09-29 01:35:00,
2013-09-28 21:36:00,56.6,54.9,30.22,NNW,344,1.8,3.5,94,0.00,CLR,OVC,0.01,WeatherDisplay:10.37,2013-09-29 01:36:00,
2013-09-28 21:40:00,56.1,54.4,30.22,NNW,344,0.4,2.0,94,0.00,CLR,OVC,0.01,WeatherDisplay:10.37,2013-09-29 01:40:00,
2013-09-28 21:42:00,56.0,54.3,30.22,NNW,344,0.4,1.2,94,0.00,CLR,OVC,0.01,WeatherDisplay:10.37,2013-09-29 01:42:00,
2013-09-28 21:45:00,55.8,54.1,30.22,NNW,344,0.0,0.0,94,0.00,CLR,OVC,0.01,WeatherDisplay:10.37,2013-09-29 01:45:00,
2013-09-28 21:47:00,55.7,54.0,30.22,NNW,344,0.0,0.0,94,0.00,CLR,OVC,0.01,WeatherDisplay:10.37,2013-09-29 01:47:00,
2013-09-28 21:50:00,55.5,53.8,30.22,NNW,344,0.0,0.0,94,0.00,CLR,OVC,0.01,WeatherDisplay:10.37,2013-09-29 01:50:00,
2013-09-28 21:52:00,55.5,53.8,30.22,NNW,344,1.9,3.5,94,0.00,CLR,OVC,0.01,WeatherDisplay:10.37,2013-09-29 01:52:00,
2013-09-28 21:55:00,55.4,53.7,30.22,NNW,344,2.6,3.5,94,0.00,CLR,OVC,0.01,WeatherDisplay:10.37,2013-09-29 01:55:00,
2013-09-28 21:56:00,55.4,54.0,30.22,NNW,344,2.6,3.5,95,0.00,CLR,OVC,0.01,WeatherDisplay:10.37,2013-09-29 01:56:00,
2013-09-28 21:57:00,55.3,53.9,30.22,NNW,344,1.3,3.5,95,0.00,CLR,OVC,0.01,WeatherDisplay:10.37,2013-09-29 01:57:00,
2013-09-28 22:00:00,55.4,54.0,30.22,NNW,344,1.2,2.3,95,0.00,CLR,OVC,0.01,WeatherDisplay:10.37,2013-09-29 02:00:00,
2013-09-28 22:01:00,55.4,54.0,30.22,NNW,344,1.0,2.3,95,0.00,CLR,OVC,0.01,WeatherDisplay:10.37,2013-09-29 02:01:00,
2013-09-28 22:02:00,55.4,54.3,30.22,NNW,344,0.5,1.2,96,0.00,CLR,OVC,0.01,WeatherDisplay:10.37,2013-09-29 02:02:00,
2013-09-28 22:05:00,55.4,54.3,30.22,NNW,344,0.0,0.0,96,0.00,CLR,OVC,0.01,WeatherDisplay:10.37,2013-09-29 02:05:00,
2013-09-28 22:06:00,55.4,54.3,30.22,NNW,344,0.0,1.0,96,0.00,CLR,OVC,0.01,WeatherDisplay:10.37,2013-09-29 02:06:00,
2013-09-28 22:07:00,55.4,54.3,30.22,NNW,344,0.0,0.0,96,0.00,CLR,OVC,0.01,WeatherDisplay:10.37,2013-09-29 02:07:00,
2013-09-28 22:10:00,55.4,54.6,30.22,NNW,344,0.9,2.3,97,0.00,CLR,OVC,0.01,WeatherDisplay:10.37,2013-09-29 02:10:00,
2013-09-28 22:11:00,55.4,54.3,30.22,NNW,344,0.8,1.2,96,0.00,CLR,OVC,0.01,WeatherDisplay:10.37,2013-09-29 02:11:00,
2013-09-28 22:13:00,55.4,54.6,30.22,NNW,344,0.2,1.2,97,0.00,CLR,OVC,0.01,WeatherDisplay:10.37,2013-09-29 02:13:00,
2013-09-28 22:15:00,55.4,54.6,30.22,NNW,344,0.0,0.0,97,0.00,CLR,OVC,0.01,WeatherDisplay:10.37,2013-09-29 02:15:00,
2013-09-28 22:16:00,55.4,54.6,30.22,NNW,344,0.1,0.0,97,0.00,CLR,OVC,0.01,WeatherDisplay:10.37,2013-09-29 02:16:00,
2013-09-28 22:18:00,55.5,54.7,30.22,NNW,344,0.0,0.0,97,0.00,CLR,OVC,0.01,WeatherDisplay:10.37,2013-09-29 02:18:00,
2013-09-28 22:20:00,55.5,54.7,30.22,NNW,344,1.1,2.3,97,0.00,CLR,OVC,0.01,WeatherDisplay:10.37,2013-09-29 02:20:00,
2013-09-28 22:21:00,55.5,54.7,30.22,NNW,344,0.4,1.2,97,0.00,CLR,OVC,0.01,WeatherDisplay:10.37,2013-09-29 02:21:00,
2013-09-28 22:23:00,55.5,54.7,30.22,NNW,344,0.1,1.2,97,0.00,CLR,OVC,0.01,WeatherDisplay:10.37,2013-09-29 02:23:00,
2013-09-28 22:26:00,55.3,54.5,30.22,NNW,344,0.7,2.3,97,0.00,CLR,OVC,0.01,WeatherDisplay:10.37,2013-09-29 02:26:00,
2013-09-28 22:28:00,55.2,54.4,30.22,NNW,344,1.7,2.3,97,0.00,CLR,OVC,0.01,WeatherDisplay:10.37,2013-09-29 02:28:00,
2013-09-28 22:31:00,55.1,54.3,30.22,NNW,344,0.4,2.3,97,0.00,CLR,OVC,0.01,WeatherDisplay:10.37,2013-09-29 02:31:00,
2013-09-28 22:33:00,54.9,54.1,30.22,NNW,344,0.0,0.0,97,0.00,CLR,OVC,0.01,WeatherDisplay:10.37,2013-09-29 02:33:00,
2013-09-28 22:36:00,54.8,54.0,30.22,NNW,344,0.0,0.0,97,0.00,CLR,OVC,0.01,WeatherDisplay:10.37,2013-09-29 02:36:00,
2013-09-28 22:37:00,54.8,54.0,30.22,NNW,344,0.0,0.0,97,0.00,CLR,OVC,0.01,WeatherDisplay:10.37,2013-09-29 02:37:00,
2013-09-28 22:38:00,54.8,54.2,30.22,NNW,344,0.0,0.0,98,0.00,CLR,OVC,0.01,WeatherDisplay:10.37,2013-09-29 02:38:00,
2013-09-28 22:41:00,54.8,54.2,30.22,NNW,344,0.0,0.0,98,0.00,CLR,OVC,0.01,WeatherDisplay:10.37,2013-09-29 02:41:00,
2013-09-28 22:43:00,54.7,53.9,30.22,NNW,344,0.0,0.0,97,0.00,CLR,OVC,0.01,WeatherDisplay:10.37,2013-09-29 02:43:00,
2013-09-28 22:46:00,54.6,54.0,30.22,NNW,344,0.0,0.0,98,0.00,CLR,OVC,0.01,WeatherDisplay:10.37,2013-09-29 02:46:00,
2013-09-28 22:48:00,54.6,53.8,30.22,NNW,344,0.0,0.0,97,0.00,CLR,OVC,0.01,WeatherDisplay:10.37,2013-09-29 02:48:00,
2013-09-28 22:51:00,54.5,53.7,30.22,NNW,344,0.0,0.0,97,0.00,CLR,OVC,0.01,WeatherDisplay:10.37,2013-09-29 02:51:00,
2013-09-28 22:53:00,54.2,53.6,30.22,NNW,344,0.5,2.3,98,0.00,CLR,OVC,0.01,WeatherDisplay:10.37,2013-09-29 02:53:00,
2013-09-28 22:54:00,54.4,53.6,30.22,NNW,344,0.0,1.2,97,0.00,CLR,OVC,0.01,WeatherDisplay:10.37,2013-09-29 02:54:00,
2013-09-28 22:56:00,54.2,53.4,30.22,NNW,344,0.0,1.0,97,0.00,CLR,OVC,0.01,WeatherDisplay:10.37,2013-09-29 02:56:00,
2013-09-28 22:58:00,53.8,53.0,30.22,NNW,344,1.9,3.5,97,0.00,CLR,OVC,0.01,WeatherDisplay:10.37,2013-09-29 02:58:00,
2013-09-28 22:59:00,53.7,52.9,30.22,NNW,344,2.2,3.5,97,0.00,CLR,OVC,0.01,WeatherDisplay:10.37,2013-09-29 02:59:00,
2013-09-28 23:01:00,53.8,53.0,30.22,NNW,344,1.3,3.5,97,0.00,CLR,OVC,0.01,WeatherDisplay:10.37,2013-09-29 03:01:00,
2013-09-28 23:03:00,53.7,53.1,30.22,NNW,344,0.4,2.0,98,0.00,CLR,OVC,0.01,WeatherDisplay:10.37,2013-09-29 03:03:00,
2013-09-28 23:04:00,53.5,52.9,30.22,NNW,344,0.6,2.3,98,0.00,CLR,OVC,0.01,WeatherDisplay:10.37,2013-09-29 03:04:00,
2013-09-28 23:06:00,53.5,52.9,30.22,NNW,344,1.2,2.3,98,0.00,CLR,OVC,0.01,WeatherDisplay:10.37,2013-09-29 03:06:00,
2013-09-28 23:08:00,53.6,53.0,30.22,NNW,344,0.0,1.2,98,0.00,CLR,OVC,0.01,WeatherDisplay:10.37,2013-09-29 03:08:00,
2013-09-28 23:09:00,53.7,53.4,30.22,NNW,344,0.0,0.0,99,0.00,CLR,OVC,0.01,WeatherDisplay:10.37,2013-09-29 03:09:00,
2013-09-28 23:11:00,53.8,53.2,30.22,NNW,344,0.0,0.0,98,0.00,CLR,OVC,0.01,WeatherDisplay:10.37,2013-09-29 03:11:00,
2013-09-28 23:13:00,53.9,53.6,30.22,NNW,344,0.0,0.0,99,0.00,CLR,OVC,0.01,WeatherDisplay:10.37,2013-09-29 03:13:00,
2013-09-28 23:14:00,53.9,53.6,30.22,NNW,344,0.0,0.0,99,0.00,CLR,OVC,0.01,WeatherDisplay:10.37,2013-09-29 03:14:00,
2013-09-28 23:16:00,54.1,53.8,30.22,NNW,344,0.4,1.0,99,0.00,CLR,OVC,0.01,WeatherDisplay:10.37,2013-09-29 03:16:00,
2013-09-28 23:19:00,54.1,53.5,30.22,NNW,344,0.1,1.2,98,0.00,CLR,OVC,0.01,WeatherDisplay:10.37,2013-09-29 03:19:00,
2013-09-28 23:21:00,54.2,53.9,30.22,NNW,344,1.0,1.2,99,0.00,CLR,OVC,0.01,WeatherDisplay:10.37,2013-09-29 03:21:00,
2013-09-28 23:25:00,54.2,53.9,30.22,NNW,344,0.0,0.0,99,0.00,CLR,OVC,0.01,WeatherDisplay:10.37,2013-09-29 03:25:00,
2013-09-28 23:26:00,54.2,53.9,30.21,NNW,344,0.0,0.0,99,0.00,CLR,OVC,0.01,WeatherDisplay:10.37,2013-09-29 03:26:00,
2013-09-28 23:30:00,54.3,54.0,30.21,NNW,344,0.0,0.0,99,0.00,CLR,OVC,0.01,WeatherDisplay:10.37,2013-09-29 03:30:00,
2013-09-28 23:31:00,54.3,54.0,30.21,NNW,344,0.0,0.0,99,0.00,CLR,OVC,0.01,WeatherDisplay:10.37,2013-09-29 03:31:00,
2013-09-28 23:35:00,54.2,53.9,30.21,NNW,344,0.0,0.0,99,0.00,CLR,OVC,0.01,WeatherDisplay:10.37,2013-09-29 03:35:00,
2013-09-28 23:37:00,54.0,53.7,30.21,NNW,344,0.0,0.0,99,0.00,CLR,OVC,0.01,WeatherDisplay:10.37,2013-09-29 03:37:00,
2013-09-28 23:40:00,53.8,53.5,30.21,NNW,344,0.0,0.0,99,0.00,CLR,OVC,0.01,WeatherDisplay:10.37,2013-09-29 03:40:00,
2013-09-28 23:42:00,53.8,53.5,30.21,NNW,344,1.1,2.0,99,0.00,CLR,OVC,0.01,WeatherDisplay:10.37,2013-09-29 03:42:00,
2013-09-28 23:45:00,53.9,53.6,30.21,NNW,344,1.2,2.3,99,0.00,CLR,OVC,0.01,WeatherDisplay:10.37,2013-09-29 03:45:00,
2013-09-28 23:47:00,54.0,53.7,30.21,NNW,344,0.2,2.3,99,0.00,CLR,OVC,0.01,WeatherDisplay:10.37,2013-09-29 03:47:00,
2013-09-28 23:50:00,54.1,53.8,30.21,NNW,344,0.3,1.2,99,0.00,CLR,OVC,0.01,WeatherDisplay:10.37,2013-09-29 03:50:00,
2013-09-28 23:52:00,54.2,53.9,30.21,NNW,344,0.9,2.3,99,0.00,CLR,OVC,0.01,WeatherDisplay:10.37,2013-09-29 03:52:00,
2013-09-28 23:55:00,54.3,54.0,30.21,NNW,344,0.4,2.3,99,0.00,CLR,OVC,0.01,WeatherDisplay:10.37,2013-09-29 03:55:00,
2013-09-28 23:57:00,54.3,54.0,30.21,NNW,344,0.0,0.0,99,0.00,CLR,OVC,0.01,WeatherDisplay:10.37,2013-09-29 03:57:00,